Time,TemperatureF,DewpointF,PressureIn,WindDirection,WindDirectionDegrees,WindSpeedMPH,WindSpeedGustMPH,Humidity,HourlyPrecipIn,Conditions,Clouds,dailyrainin,SoftwareType,DateUTC
2013-06-01 00:01:00,66.1,59.0,30.21,SSE,148,1.0,4.0,77,0.00,,,0.00,weatherlink.com 1.10,2013-06-01 04:01:00,
2013-06-01 00:03:00,66.1,58.7,30.21,SSE,167,0.0,2.0,77,0.00,,,0.00,Wunderground v.1.15,2013-06-01 04:03:00,
2013-06-01 00:04:00,66.1,58.7,30.21,SSE,165,1.0,2.0,77,0.00,,,0.00,Wunderground v.1.15,2013-06-01 04:04:00,
2013-06-01 00:05:00,66.0,58.6,30.21,WSW,246,0.0,2.0,77,0.00,,,0.00,Wunderground v.1.15,2013-06-01 04:05:00,
2013-06-01 00:07:00,66.0,58.6,30.21,South,181,1.0,2.0,77,0.00,,,0.00,Wunderground v.1.15,2013-06-01 04:07:00,
2013-06-01 00:10:00,65.9,58.8,30.22,SSE,167,2.0,2.0,78,0.00,,,0.00,Wunderground v.1.15,2013-06-01 04:10:00,
2013-06-01 00:11:00,65.8,58.7,30.22,South,175,3.0,3.0,78,0.00,,,0.00,Wunderground v.1.15,2013-06-01 04:11:00,
2013-06-01 00:13:00,65.8,58.7,30.21,SSE,155,3.0,3.0,78,0.00,,,0.00,Wunderground v.1.15,2013-06-01 04:13:00,
2013-06-01 00:16:00,65.7,59.0,30.21,South,171,2.0,4.0,78,0.00,,,0.00,weatherlink.com 1.10,2013-06-01 04:16:00,
2013-06-01 00:18:00,65.7,58.7,30.21,South,180,3.0,3.0,78,0.00,,,0.00,Wunderground v.1.15,2013-06-01 04:18:00,
2013-06-01 00:19:00,65.6,58.6,30.21,South,185,2.0,3.0,78,0.00,,,0.00,Wunderground v.1.15,2013-06-01 04:19:00,
2013-06-01 00:22:00,65.6,58.6,30.21,SW,217,3.0,5.0,78,0.00,,,0.00,Wunderground v.1.15,2013-06-01 04:22:00,
2013-06-01 00:23:00,65.6,58.6,30.21,SSE,167,3.0,5.0,78,0.00,,,0.00,Wunderground v.1.15,2013-06-01 04:23:00,
2013-06-01 00:25:00,65.6,58.6,30.21,SSW,208,3.0,5.0,78,0.00,,,0.00,Wunderground v.1.15,2013-06-01 04:25:00,
2013-06-01 00:29:00,65.7,58.7,30.21,SSW,205,2.0,5.0,78,0.00,,,0.00,Wunderground v.1.15,2013-06-01 04:29:00,
2013-06-01 00:31:00,65.7,58.7,30.21,South,184,0.0,2.0,78,0.00,,,0.00,Wunderground v.1.15,2013-06-01 04:31:00,
2013-06-01 00:32:00,65.6,59.0,30.21,WSW,238,2.0,5.0,78,0.00,,,0.00,weatherlink.com 1.10,2013-06-01 04:32:00,
2013-06-01 00:34:00,65.6,58.6,30.21,SW,223,1.0,3.0,78,0.00,,,0.00,Wunderground v.1.15,2013-06-01 04:34:00,
2013-06-01 00:38:00,65.5,58.5,30.21,SSW,192,1.0,3.0,78,0.00,,,0.00,Wunderground v.1.15,2013-06-01 04:38:00,
2013-06-01 00:39:00,65.5,58.5,30.21,South,178,0.0,3.0,78,0.00,,,0.00,Wunderground v.1.15,2013-06-01 04:39:00,
2013-06-01 00:40:00,65.5,58.5,30.21,South,178,1.0,2.0,78,0.00,,,0.00,Wunderground v.1.15,2013-06-01 04:40:00,
2013-06-01 00:41:00,65.6,58.6,30.21,South,181,4.0,4.0,78,0.00,,,0.00,Wunderground v.1.15,2013-06-01 04:41:00,
2013-06-01 00:44:00,65.6,58.6,30.21,South,172,5.0,5.0,78,0.00,,,0.00,Wunderground v.1.15,2013-06-01 04:44:00,
2013-06-01 00:45:00,65.7,58.7,30.21,South,188,3.0,5.0,78,0.00,,,0.00,Wunderground v.1.15,2013-06-01 04:45:00,
2013-06-01 00:47:00,65.7,58.7,30.20,SSE,165,3.0,5.0,78,0.00,,,0.00,Wunderground v.1.15,2013-06-01 04:47:00,
2013-06-01 00:48:00,65.8,58.7,30.20,South,182,2.0,5.0,78,0.00,,,0.00,Wunderground v.1.15,2013-06-01 04:48:00,
2013-06-01 00:50:00,65.8,58.7,30.20,SSE,154,5.0,5.0,78,0.00,,,0.00,Wunderground v.1.15,2013-06-01 04:50:00,
2013-06-01 00:52:00,65.8,58.7,30.20,South,170,2.0,5.0,78,0.00,,,0.00,Wunderground v.1.15,2013-06-01 04:52:00,
2013-06-01 00:53:00,65.8,58.7,30.20,South,171,2.0,5.0,78,0.00,,,0.00,Wunderground v.1.15,2013-06-01 04:53:00,
2013-06-01 00:54:00,65.8,58.7,30.20,South,178,2.0,5.0,78,0.00,,,0.00,Wunderground v.1.15,2013-06-01 04:54:00,
2013-06-01 00:55:00,65.9,58.8,30.20,South,186,6.0,6.0,78,0.00,,,0.00,Wunderground v.1.15,2013-06-01 04:55:00,
2013-06-01 00:58:00,65.9,58.8,30.20,SE,142,2.0,6.0,78,0.00,,,0.00,Wunderground v.1.15,2013-06-01 04:58:00,
2013-06-01 00:59:00,65.9,58.8,30.20,South,169,5.0,6.0,78,0.00,,,0.00,Wunderground v.1.15,2013-06-01 04:59:00,
2013-06-01 01:01:00,65.9,58.8,30.20,South,186,3.0,5.0,78,0.00,,,0.00,Wunderground v.1.15,2013-06-01 05:01:00,
2013-06-01 01:02:00,66.0,59.0,30.20,South,173,4.0,7.0,78,0.00,,,0.00,weatherlink.com 1.10,2013-06-01 05:02:00,
2013-06-01 01:07:00,65.9,58.8,30.20,South,178,1.0,6.0,78,0.00,,,0.00,Wunderground v.1.15,2013-06-01 05:07:00,
2013-06-01 01:08:00,65.9,58.8,30.20,South,178,1.0,6.0,78,0.00,,,0.00,Wunderground v.1.15,2013-06-01 05:08:00,
2013-06-01 01:12:00,66.1,59.0,30.20,SW,216,3.0,3.0,78,0.00,,,0.00,Wunderground v.1.15,2013-06-01 05:12:00,
2013-06-01 01:14:00,66.1,59.0,30.20,South,171,2.0,3.0,78,0.00,,,0.00,Wunderground v.1.15,2013-06-01 05:14:00,
2013-06-01 01:15:00,66.1,59.0,30.20,South,173,1.0,3.0,78,0.00,,,0.00,Wunderground v.1.15,2013-06-01 05:15:00,
2013-06-01 01:17:00,66.1,59.0,30.20,South,186,3.0,3.0,78,0.00,,,0.00,Wunderground v.1.15,2013-06-01 05:17:00,
2013-06-01 01:18:00,66.0,58.9,30.20,South,178,2.0,3.0,78,0.00,,,0.00,Wunderground v.1.15,2013-06-01 05:18:00,
2013-06-01 01:19:00,66.0,58.9,30.20,South,169,3.0,3.0,78,0.00,,,0.00,Wunderground v.1.15,2013-06-01 05:19:00,
2013-06-01 01:21:00,66.0,58.9,30.19,SSE,164,3.0,3.0,78,0.00,,,0.00,Wunderground v.1.15,2013-06-01 05:21:00,
2013-06-01 01:23:00,65.9,58.8,30.19,South,175,2.0,3.0,78,0.00,,,0.00,Wunderground v.1.15,2013-06-01 05:23:00,
2013-06-01 01:28:00,65.8,58.7,30.20,South,173,1.0,4.0,78,0.00,,,0.00,Wunderground v.1.15,2013-06-01 05:28:00,
2013-06-01 01:29:00,65.8,58.7,30.20,South,178,1.0,4.0,78,0.00,,,0.00,Wunderground v.1.15,2013-06-01 05:29:00,
2013-06-01 01:30:00,65.8,58.7,30.20,SW,221,3.0,3.0,78,0.00,,,0.00,Wunderground v.1.15,2013-06-01 05:30:00,
2013-06-01 01:32:00,65.7,59.0,30.20,South,171,0.0,3.0,79,0.00,,,0.00,Wunderground v.1.15,2013-06-01 05:32:00,
2013-06-01 01:35:00,65.6,58.9,30.20,SSE,151,0.0,3.0,79,0.00,,,0.00,Wunderground v.1.15,2013-06-01 05:35:00,
2013-06-01 01:37:00,65.6,58.9,30.20,SSW,207,1.0,3.0,79,0.00,,,0.00,Wunderground v.1.15,2013-06-01 05:37:00,
2013-06-01 01:38:00,65.6,58.9,30.20,WSW,254,1.0,3.0,79,0.00,,,0.00,Wunderground v.1.15,2013-06-01 05:38:00,
2013-06-01 01:39:00,65.5,58.8,30.20,WSW,254,0.0,3.0,79,0.00,,,0.00,Wunderground v.1.15,2013-06-01 05:39:00,
2013-06-01 01:42:00,65.5,59.2,30.20,WSW,254,0.0,1.0,80,0.00,,,0.00,Wunderground v.1.15,2013-06-01 05:42:00,
2013-06-01 01:46:00,65.6,58.9,30.20,ESE,103,0.0,1.0,79,0.00,,,0.00,Wunderground v.1.15,2013-06-01 05:46:00,
2013-06-01 01:48:00,65.6,59.0,30.20,East,101,0.0,2.0,79,0.00,,,0.00,weatherlink.com 1.10,2013-06-01 05:48:00,
2013-06-01 01:49:00,65.5,58.8,30.20,SE,146,0.0,1.0,79,0.00,,,0.00,Wunderground v.1.15,2013-06-01 05:49:00,
2013-06-01 01:54:00,65.1,58.8,30.20,West,267,1.0,1.0,80,0.00,,,0.00,Wunderground v.1.15,2013-06-01 05:54:00,
2013-06-01 01:55:00,65.1,58.8,30.20,South,185,1.0,1.0,80,0.00,,,0.00,Wunderground v.1.15,2013-06-01 05:55:00,
2013-06-01 01:57:00,64.9,58.9,30.20,WNW,283,0.0,3.0,81,0.00,,,0.00,Wunderground v.1.15,2013-06-01 05:57:00,
2013-06-01 01:58:00,64.9,58.9,30.20,WNW,283,0.0,3.0,81,0.00,,,0.00,Wunderground v.1.15,2013-06-01 05:58:00,
2013-06-01 01:59:00,64.8,58.8,30.20,WNW,283,2.0,3.0,81,0.00,,,0.00,Wunderground v.1.15,2013-06-01 05:59:00,
2013-06-01 02:00:00,64.7,58.7,30.20,SSE,155,1.0,1.0,81,0.00,,,0.00,Wunderground v.1.15,2013-06-01 06:00:00,
2013-06-01 02:02:00,64.7,58.7,30.20,West,280,0.0,3.0,81,0.00,,,0.00,Wunderground v.1.15,2013-06-01 06:02:00,
2013-06-01 02:03:00,64.6,58.6,30.20,West,280,0.0,3.0,81,0.00,,,0.00,Wunderground v.1.15,2013-06-01 06:03:00,
2013-06-01 02:04:00,64.6,58.6,30.20,West,280,0.0,3.0,81,0.00,,,0.00,Wunderground v.1.15,2013-06-01 06:04:00,
2013-06-01 02:05:00,64.6,58.6,30.20,WNW,286,2.0,3.0,81,0.00,,,0.00,Wunderground v.1.15,2013-06-01 06:05:00,
2013-06-01 02:08:00,64.7,58.7,30.20,WNW,286,0.0,3.0,81,0.00,,,0.00,Wunderground v.1.15,2013-06-01 06:08:00,
2013-06-01 02:10:00,64.7,58.7,30.20,WNW,286,0.0,1.0,81,0.00,,,0.00,Wunderground v.1.15,2013-06-01 06:10:00,
2013-06-01 02:11:00,64.7,58.7,30.20,WNW,286,1.0,1.0,81,0.00,,,0.00,Wunderground v.1.15,2013-06-01 06:11:00,
2013-06-01 02:13:00,64.8,59.2,30.20,WNW,286,0.0,1.0,82,0.00,,,0.00,Wunderground v.1.15,2013-06-01 06:13:00,
2013-06-01 02:14:00,64.8,59.2,30.20,SW,220,0.0,2.0,82,0.00,,,0.00,Wunderground v.1.15,2013-06-01 06:14:00,
2013-06-01 02:15:00,64.8,59.2,30.20,South,177,1.0,2.0,82,0.00,,,0.00,Wunderground v.1.15,2013-06-01 06:15:00,
2013-06-01 02:17:00,64.9,58.9,30.20,South,174,1.0,2.0,81,0.00,,,0.00,Wunderground v.1.15,2013-06-01 06:17:00,
2013-06-01 02:18:00,65.0,59.0,30.20,South,173,0.0,2.0,81,0.00,,,0.00,Wunderground v.1.15,2013-06-01 06:18:00,
2013-06-01 02:19:00,65.0,59.0,30.20,South,173,0.0,2.0,81,0.00,,,0.00,Wunderground v.1.15,2013-06-01 06:19:00,
2013-06-01 02:20:00,65.0,59.0,30.20,South,173,0.0,1.0,81,0.00,,,0.00,Wunderground v.1.15,2013-06-01 06:20:00,
2013-06-01 02:22:00,65.1,59.1,30.20,South,173,1.0,1.0,81,0.00,,,0.00,Wunderground v.1.15,2013-06-01 06:22:00,
2013-06-01 02:24:00,65.1,59.1,30.20,South,173,0.0,2.0,81,0.00,,,0.00,Wunderground v.1.15,2013-06-01 06:24:00,
2013-06-01 02:25:00,65.1,59.1,30.20,South,173,0.0,2.0,81,0.00,,,0.00,Wunderground v.1.15,2013-06-01 06:25:00,
2013-06-01 02:26:00,65.1,59.1,30.20,South,173,0.0,2.0,81,0.00,,,0.00,Wunderground v.1.15,2013-06-01 06:26:00,
2013-06-01 02:28:00,65.1,59.1,30.20,South,173,0.0,2.0,81,0.00,,,0.00,Wunderground v.1.15,2013-06-01 06:28:00,
2013-06-01 02:29:00,65.1,59.1,30.20,South,173,0.0,2.0,81,0.00,,,0.00,Wunderground v.1.15,2013-06-01 06:29:00,
2013-06-01 02:30:00,65.1,59.1,30.20,South,173,0.0,0.0,81,0.00,,,0.00,Wunderground v.1.15,2013-06-01 06:30:00,
2013-06-01 02:31:00,65.0,59.0,30.20,South,173,0.0,0.0,81,0.00,,,0.00,Wunderground v.1.15,2013-06-01 06:31:00,
2013-06-01 02:32:00,65.1,59.1,30.20,South,173,0.0,0.0,81,0.00,,,0.00,Wunderground v.1.15,2013-06-01 06:32:00,
2013-06-01 02:33:00,65.0,59.0,30.20,South,173,0.0,0.0,81,0.00,,,0.00,Wunderground v.1.15,2013-06-01 06:33:00,
2013-06-01 02:35:00,65.0,59.4,30.20,South,173,0.0,1.0,82,0.00,,,0.00,Wunderground v.1.15,2013-06-01 06:35:00,
2013-06-01 02:37:00,65.0,59.4,30.20,South,173,0.0,1.0,82,0.00,,,0.00,Wunderground v.1.15,2013-06-01 06:37:00,
2013-06-01 02:38:00,65.0,59.4,30.20,South,173,0.0,1.0,82,0.00,,,0.00,Wunderground v.1.15,2013-06-01 06:38:00,
2013-06-01 02:41:00,65.0,59.4,30.20,South,173,0.0,1.0,82,0.00,,,0.00,Wunderground v.1.15,2013-06-01 06:41:00,
2013-06-01 02:42:00,65.0,59.4,30.20,South,173,1.0,1.0,82,0.00,,,0.00,Wunderground v.1.15,2013-06-01 06:42:00,
2013-06-01 02:43:00,65.0,59.4,30.20,South,173,2.0,2.0,82,0.00,,,0.00,Wunderground v.1.15,2013-06-01 06:43:00,
2013-06-01 02:46:00,65.0,59.4,30.20,South,173,1.0,2.0,82,0.00,,,0.00,Wunderground v.1.15,2013-06-01 06:46:00,
2013-06-01 02:47:00,64.9,59.3,30.20,South,173,1.0,2.0,82,0.00,,,0.00,Wunderground v.1.15,2013-06-01 06:47:00,
2013-06-01 02:48:00,64.9,59.3,30.20,South,173,0.0,2.0,82,0.00,,,0.00,Wunderground v.1.15,2013-06-01 06:48:00,
2013-06-01 02:51:00,64.9,59.3,30.20,South,173,0.0,3.0,82,0.00,,,0.00,Wunderground v.1.15,2013-06-01 06:51:00,
2013-06-01 02:53:00,64.9,59.3,30.20,South,178,3.0,3.0,82,0.00,,,0.00,Wunderground v.1.15,2013-06-01 06:53:00,
2013-06-01 02:57:00,64.9,59.3,30.20,South,180,2.0,3.0,82,0.00,,,0.00,Wunderground v.1.15,2013-06-01 06:57:00,
2013-06-01 02:58:00,64.8,59.2,30.20,SSW,205,1.0,4.0,82,0.00,,,0.00,Wunderground v.1.15,2013-06-01 06:58:00,
2013-06-01 02:59:00,64.8,59.2,30.20,SSW,205,1.0,4.0,82,0.00,,,0.00,Wunderground v.1.15,2013-06-01 06:59:00,
2013-06-01 03:02:00,64.7,59.1,30.20,SSW,210,0.0,2.0,82,0.00,,,0.00,Wunderground v.1.15,2013-06-01 07:02:00,
2013-06-01 03:03:00,64.6,59.0,30.20,SSW,210,0.0,2.0,82,0.00,,,0.00,Wunderground v.1.15,2013-06-01 07:03:00,
2013-06-01 03:04:00,64.6,59.0,30.20,SSW,210,1.0,2.0,82,0.00,,,0.00,Wunderground v.1.15,2013-06-01 07:04:00,
2013-06-01 03:05:00,64.6,59.0,30.20,SSW,192,0.0,2.0,82,0.00,,,0.00,Wunderground v.1.15,2013-06-01 07:05:00,
2013-06-01 03:07:00,64.5,59.2,30.20,South,188,1.0,2.0,83,0.00,,,0.00,Wunderground v.1.15,2013-06-01 07:07:00,
2013-06-01 03:08:00,64.5,59.2,30.20,South,178,1.0,3.0,83,0.00,,,0.00,Wunderground v.1.15,2013-06-01 07:08:00,
2013-06-01 03:09:00,64.4,59.1,30.20,South,184,2.0,3.0,83,0.00,,,0.00,Wunderground v.1.15,2013-06-01 07:09:00,
2013-06-01 03:11:00,64.4,59.1,30.20,SSE,153,3.0,5.0,83,0.00,,,0.00,Wunderground v.1.15,2013-06-01 07:11:00,
2013-06-01 03:13:00,64.4,59.1,30.20,SSE,166,3.0,5.0,83,0.00,,,0.00,Wunderground v.1.15,2013-06-01 07:13:00,
2013-06-01 03:14:00,64.3,59.0,30.20,South,174,1.0,5.0,83,0.00,,,0.00,Wunderground v.1.15,2013-06-01 07:14:00,
2013-06-01 03:16:00,64.3,59.0,30.19,South,176,3.0,5.0,83,0.00,,,0.00,Wunderground v.1.15,2013-06-01 07:16:00,
2013-06-01 03:18:00,64.3,59.4,30.19,South,183,3.0,5.0,84,0.00,,,0.00,Wunderground v.1.15,2013-06-01 07:18:00,
2013-06-01 03:19:00,64.3,59.4,30.19,SSW,194,2.0,5.0,84,0.00,,,0.00,Wunderground v.1.15,2013-06-01 07:19:00,
2013-06-01 03:21:00,64.4,59.5,30.19,SSW,210,4.0,7.0,84,0.00,,,0.00,Wunderground v.1.15,2013-06-01 07:21:00,
2013-06-01 03:23:00,64.4,59.1,30.19,SW,221,3.0,7.0,83,0.00,,,0.00,Wunderground v.1.15,2013-06-01 07:23:00,
2013-06-01 03:24:00,64.4,59.1,30.19,SSW,211,3.0,7.0,83,0.00,,,0.00,Wunderground v.1.15,2013-06-01 07:24:00,
2013-06-01 03:25:00,64.4,59.1,30.20,SSW,205,3.0,7.0,83,0.00,,,0.00,Wunderground v.1.15,2013-06-01 07:25:00,
2013-06-01 03:26:00,64.4,59.5,30.20,SSW,209,2.0,7.0,84,0.00,,,0.00,Wunderground v.1.15,2013-06-01 07:26:00,
2013-06-01 03:29:00,64.5,59.6,30.20,SSW,203,1.0,7.0,84,0.00,,,0.00,Wunderground v.1.15,2013-06-01 07:29:00,
2013-06-01 03:30:00,64.5,59.6,30.20,South,186,3.0,3.0,84,0.00,,,0.00,Wunderground v.1.15,2013-06-01 07:30:00,
2013-06-01 03:31:00,64.5,59.6,30.20,SSW,213,4.0,4.0,84,0.00,,,0.00,Wunderground v.1.15,2013-06-01 07:31:00,
2013-06-01 03:34:00,64.7,59.4,30.20,SSW,196,3.0,5.0,83,0.00,,,0.00,Wunderground v.1.15,2013-06-01 07:34:00,
2013-06-01 03:35:00,64.7,59.4,30.20,SW,228,4.0,5.0,83,0.00,,,0.00,Wunderground v.1.15,2013-06-01 07:35:00,
2013-06-01 03:36:00,64.9,59.6,30.20,WSW,242,1.0,5.0,83,0.00,,,0.00,Wunderground v.1.15,2013-06-01 07:36:00,
2013-06-01 03:39:00,65.0,59.7,30.19,SSW,204,2.0,5.0,83,0.00,,,0.00,Wunderground v.1.15,2013-06-01 07:39:00,
2013-06-01 03:40:00,65.0,59.7,30.20,SW,229,1.0,3.0,83,0.00,,,0.00,Wunderground v.1.15,2013-06-01 07:40:00,
2013-06-01 03:41:00,65.1,59.8,30.20,SW,221,0.0,3.0,83,0.00,,,0.00,Wunderground v.1.15,2013-06-01 07:41:00,
2013-06-01 03:44:00,65.2,59.9,30.19,SSW,201,3.0,4.0,83,0.00,,,0.00,Wunderground v.1.15,2013-06-01 07:44:00,
2013-06-01 03:45:00,65.2,59.9,30.19,SSW,202,1.0,4.0,83,0.00,,,0.00,Wunderground v.1.15,2013-06-01 07:45:00,
2013-06-01 03:46:00,65.2,59.9,30.19,SSW,202,0.0,4.0,83,0.00,,,0.00,Wunderground v.1.15,2013-06-01 07:46:00,
2013-06-01 03:47:00,65.2,59.9,30.19,SSW,202,1.0,4.0,83,0.00,,,0.00,Wunderground v.1.15,2013-06-01 07:47:00,
2013-06-01 03:49:00,65.2,59.6,30.20,South,190,0.0,4.0,82,0.00,,,0.00,Wunderground v.1.15,2013-06-01 07:49:00,
2013-06-01 03:50:00,65.2,59.6,30.20,SSW,195,0.0,1.0,82,0.00,,,0.00,Wunderground v.1.15,2013-06-01 07:50:00,
2013-06-01 03:51:00,65.2,59.9,30.20,South,180,4.0,5.0,83,0.00,,,0.00,Wunderground v.1.15,2013-06-01 07:51:00,
2013-06-01 03:52:00,65.1,59.8,30.20,SSW,204,2.0,5.0,83,0.00,,,0.00,Wunderground v.1.15,2013-06-01 07:52:00,
2013-06-01 03:54:00,65.1,59.8,30.20,WSW,237,1.0,5.0,83,0.00,,,0.00,Wunderground v.1.15,2013-06-01 07:54:00,
2013-06-01 03:55:00,65.1,59.8,30.20,SW,220,3.0,5.0,83,0.00,,,0.00,Wunderground v.1.15,2013-06-01 07:55:00,
2013-06-01 03:56:00,65.1,59.8,30.19,South,180,5.0,5.0,83,0.00,,,0.00,Wunderground v.1.15,2013-06-01 07:56:00,
2013-06-01 03:57:00,65.1,59.8,30.19,SW,227,3.0,5.0,83,0.00,,,0.00,Wunderground v.1.15,2013-06-01 07:57:00,
2013-06-01 04:00:00,65.1,59.8,30.19,South,182,4.0,7.0,83,0.00,,,0.00,Wunderground v.1.15,2013-06-01 08:00:00,
2013-06-01 04:01:00,65.1,59.8,30.19,SW,224,3.0,7.0,83,0.00,,,0.00,Wunderground v.1.15,2013-06-01 08:01:00,
2013-06-01 04:02:00,65.1,59.8,30.19,WSW,252,0.0,7.0,83,0.00,,,0.00,Wunderground v.1.15,2013-06-01 08:02:00,
2013-06-01 04:06:00,65.0,59.7,30.19,SSW,211,4.0,8.0,83,0.00,,,0.00,Wunderground v.1.15,2013-06-01 08:06:00,
2013-06-01 04:07:00,65.0,59.7,30.19,SW,229,4.0,8.0,83,0.00,,,0.00,Wunderground v.1.15,2013-06-01 08:07:00,
2013-06-01 04:08:00,65.0,59.7,30.19,SSE,157,4.0,8.0,83,0.00,,,0.00,Wunderground v.1.15,2013-06-01 08:08:00,
2013-06-01 04:11:00,65.0,59.7,30.19,South,184,0.0,3.0,83,0.00,,,0.00,Wunderground v.1.15,2013-06-01 08:11:00,
2013-06-01 04:12:00,65.0,59.7,30.19,South,191,4.0,4.0,83,0.00,,,0.00,Wunderground v.1.15,2013-06-01 08:12:00,
2013-06-01 04:13:00,65.0,59.7,30.19,South,184,4.0,4.0,83,0.00,,,0.00,Wunderground v.1.15,2013-06-01 08:13:00,
2013-06-01 04:17:00,64.9,59.6,30.19,SW,223,2.0,4.0,83,0.00,,,0.00,Wunderground v.1.15,2013-06-01 08:17:00,
2013-06-01 04:18:00,64.9,59.6,30.19,WSW,245,2.0,4.0,83,0.00,,,0.00,Wunderground v.1.15,2013-06-01 08:18:00,
2013-06-01 04:22:00,64.9,59.6,30.19,South,186,0.0,5.0,83,0.00,,,0.00,Wunderground v.1.15,2013-06-01 08:22:00,
2013-06-01 04:23:00,64.8,59.5,30.19,SSE,161,1.0,5.0,83,0.00,,,0.00,Wunderground v.1.15,2013-06-01 08:23:00,
2013-06-01 04:27:00,64.7,59.8,30.19,West,263,1.0,5.0,84,0.00,,,0.00,Wunderground v.1.15,2013-06-01 08:27:00,
2013-06-01 04:28:00,64.7,59.8,30.19,West,263,1.0,5.0,84,0.00,,,0.00,Wunderground v.1.15,2013-06-01 08:28:00,
2013-06-01 04:29:00,64.7,59.8,30.19,South,174,1.0,5.0,84,0.00,,,0.00,Wunderground v.1.15,2013-06-01 08:29:00,
2013-06-01 04:32:00,64.7,59.8,30.19,South,184,3.0,3.0,84,0.00,,,0.00,Wunderground v.1.15,2013-06-01 08:32:00,
2013-06-01 04:33:00,64.7,59.8,30.19,SSE,150,2.0,4.0,84,0.00,,,0.00,Wunderground v.1.15,2013-06-01 08:33:00,
2013-06-01 04:34:00,64.7,59.8,30.19,SSE,150,1.0,4.0,84,0.00,,,0.00,Wunderground v.1.15,2013-06-01 08:34:00,
2013-06-01 04:38:00,64.6,59.7,30.19,South,181,2.0,4.0,84,0.00,,,0.00,Wunderground v.1.15,2013-06-01 08:38:00,
2013-06-01 04:39:00,64.5,59.6,30.20,SSE,161,2.0,4.0,84,0.00,,,0.00,Wunderground v.1.15,2013-06-01 08:39:00,
2013-06-01 04:40:00,64.5,59.6,30.19,SSE,153,0.0,2.0,84,0.00,,,0.00,Wunderground v.1.15,2013-06-01 08:40:00,
2013-06-01 04:43:00,64.4,59.5,30.20,South,170,0.0,4.0,84,0.00,,,0.00,Wunderground v.1.15,2013-06-01 08:43:00,
2013-06-01 04:44:00,64.4,59.8,30.19,South,173,2.0,4.0,85,0.00,,,0.00,Wunderground v.1.15,2013-06-01 08:44:00,
2013-06-01 04:45:00,64.4,59.8,30.20,South,184,1.0,4.0,85,0.00,,,0.00,Wunderground v.1.15,2013-06-01 08:45:00,
2013-06-01 04:48:00,64.4,59.8,30.19,SSW,194,0.0,4.0,85,0.00,,,0.00,Wunderground v.1.15,2013-06-01 08:48:00,
2013-06-01 04:49:00,64.4,59.8,30.19,SSW,194,0.0,4.0,85,0.00,,,0.00,Wunderground v.1.15,2013-06-01 08:49:00,
2013-06-01 04:50:00,64.3,59.7,30.20,SSW,194,0.0,1.0,85,0.00,,,0.00,Wunderground v.1.15,2013-06-01 08:50:00,
2013-06-01 04:53:00,64.3,59.7,30.20,SW,217,0.0,2.0,85,0.00,,,0.00,Wunderground v.1.15,2013-06-01 08:53:00,
2013-06-01 04:54:00,64.3,59.7,30.19,SW,217,0.0,2.0,85,0.00,,,0.00,Wunderground v.1.15,2013-06-01 08:54:00,
2013-06-01 04:55:00,64.2,59.6,30.20,SW,217,1.0,2.0,85,0.00,,,0.00,Wunderground v.1.15,2013-06-01 08:55:00,
2013-06-01 04:59:00,64.0,59.4,30.19,South,184,2.0,3.0,85,0.00,,,0.00,Wunderground v.1.15,2013-06-01 08:59:00,
2013-06-01 05:01:00,63.9,59.6,30.19,South,185,0.0,3.0,86,0.00,,,0.00,Wunderground v.1.15,2013-06-01 09:01:00,
2013-06-01 05:04:00,63.9,59.6,30.19,SSW,196,0.0,3.0,86,0.00,,,0.00,Wunderground v.1.15,2013-06-01 09:04:00,
2013-06-01 05:05:00,63.9,59.6,30.19,SSW,196,1.0,3.0,86,0.00,,,0.00,Wunderground v.1.15,2013-06-01 09:05:00,
2013-06-01 05:07:00,63.9,59.6,30.19,SSW,196,0.0,3.0,86,0.00,,,0.00,Wunderground v.1.15,2013-06-01 09:07:00,
2013-06-01 05:09:00,63.9,59.6,30.19,SSW,196,0.0,3.0,86,0.00,,,0.00,Wunderground v.1.15,2013-06-01 09:09:00,
2013-06-01 05:10:00,63.9,59.6,30.19,SSW,196,0.0,0.0,86,0.00,,,0.00,Wunderground v.1.15,2013-06-01 09:10:00,
2013-06-01 05:12:00,63.8,59.5,30.19,SSW,196,0.0,0.0,86,0.00,,,0.00,Wunderground v.1.15,2013-06-01 09:12:00,
2013-06-01 05:14:00,63.7,59.4,30.19,SSW,196,1.0,2.0,86,0.00,,,0.00,Wunderground v.1.15,2013-06-01 09:14:00,
2013-06-01 05:15:00,63.7,59.4,30.19,SSW,196,1.0,2.0,86,0.00,,,0.00,Wunderground v.1.15,2013-06-01 09:15:00,
2013-06-01 05:17:00,63.6,59.3,30.19,South,180,0.0,3.0,86,0.00,,,0.00,Wunderground v.1.15,2013-06-01 09:17:00,
2013-06-01 05:20:00,63.4,59.5,30.20,South,180,0.0,1.0,87,0.00,,,0.00,Wunderground v.1.15,2013-06-01 09:20:00,
2013-06-01 05:21:00,63.4,59.5,30.19,South,180,0.0,1.0,87,0.00,,,0.00,Wunderground v.1.15,2013-06-01 09:21:00,
2013-06-01 05:22:00,63.3,59.4,30.19,South,187,0.0,2.0,87,0.00,,,0.00,Wunderground v.1.15,2013-06-01 09:22:00,
2013-06-01 05:25:00,63.2,59.3,30.19,SSW,192,1.0,2.0,87,0.00,,,0.00,Wunderground v.1.15,2013-06-01 09:25:00,
2013-06-01 05:26:00,63.2,59.3,30.19,SSW,192,0.0,2.0,87,0.00,,,0.00,Wunderground v.1.15,2013-06-01 09:26:00,
2013-06-01 05:28:00,63.2,59.3,30.19,SSW,192,0.0,2.0,87,0.00,,,0.00,Wunderground v.1.15,2013-06-01 09:28:00,
2013-06-01 05:30:00,63.2,59.3,30.20,SSW,192,0.0,0.0,87,0.00,,,0.00,Wunderground v.1.15,2013-06-01 09:30:00,
2013-06-01 05:31:00,63.2,59.3,30.20,SSW,192,0.0,0.0,87,0.00,,,0.00,Wunderground v.1.15,2013-06-01 09:31:00,
2013-06-01 05:33:00,63.2,59.6,30.20,SSW,192,0.0,0.0,88,0.00,,,0.00,Wunderground v.1.15,2013-06-01 09:33:00,
2013-06-01 05:36:00,63.1,59.5,30.20,SSW,192,0.0,1.0,88,0.00,,,0.00,Wunderground v.1.15,2013-06-01 09:36:00,
2013-06-01 05:37:00,63.1,59.5,30.20,SSW,192,0.0,1.0,88,0.00,,,0.00,Wunderground v.1.15,2013-06-01 09:37:00,
2013-06-01 05:38:00,63.1,59.5,30.20,SSW,192,0.0,1.0,88,0.00,,,0.00,Wunderground v.1.15,2013-06-01 09:38:00,
2013-06-01 05:41:00,63.0,59.4,30.20,SSW,192,0.0,0.0,88,0.00,,,0.00,Wunderground v.1.15,2013-06-01 09:41:00,
2013-06-01 05:42:00,63.0,59.4,30.20,SSW,192,0.0,0.0,88,0.00,,,0.00,Wunderground v.1.15,2013-06-01 09:42:00,
2013-06-01 05:43:00,63.0,59.4,30.20,SSW,192,0.0,0.0,88,0.00,,,0.00,Wunderground v.1.15,2013-06-01 09:43:00,
2013-06-01 05:46:00,62.9,59.3,30.20,South,186,2.0,2.0,88,0.00,,,0.00,Wunderground v.1.15,2013-06-01 09:46:00,
2013-06-01 05:47:00,62.9,59.3,30.20,South,181,2.0,2.0,88,0.00,,,0.00,Wunderground v.1.15,2013-06-01 09:47:00,
2013-06-01 05:48:00,62.8,59.2,30.20,South,184,1.0,5.0,88,0.00,,,0.00,Wunderground v.1.15,2013-06-01 09:48:00,
2013-06-01 05:51:00,62.8,59.2,30.20,SSW,200,0.0,2.0,88,0.00,,,0.00,Wunderground v.1.15,2013-06-01 09:51:00,
2013-06-01 05:52:00,62.8,59.5,30.20,SSW,200,0.0,2.0,89,0.00,,,0.00,Wunderground v.1.15,2013-06-01 09:52:00,
2013-06-01 05:54:00,62.9,59.6,30.20,SSW,200,1.0,2.0,89,0.00,,,0.00,Wunderground v.1.15,2013-06-01 09:54:00,
2013-06-01 05:57:00,62.9,59.3,30.20,South,188,0.0,4.0,88,0.00,,,0.00,Wunderground v.1.15,2013-06-01 09:57:00,
2013-06-01 05:59:00,63.0,59.4,30.20,SSW,211,0.0,4.0,88,0.00,,,0.00,Wunderground v.1.15,2013-06-01 09:59:00,
2013-06-01 06:02:00,63.1,59.5,30.20,SSW,192,3.0,6.0,88,0.00,,,0.00,Wunderground v.1.15,2013-06-01 10:02:00,
2013-06-01 06:03:00,63.1,59.5,30.20,South,179,4.0,6.0,88,0.00,,,0.00,Wunderground v.1.15,2013-06-01 10:03:00,
2013-06-01 06:04:00,63.1,59.5,30.20,South,183,4.0,6.0,88,0.00,,,0.00,Wunderground v.1.15,2013-06-01 10:04:00,
2013-06-01 06:08:00,63.2,59.9,30.20,South,186,3.0,6.0,89,0.00,,,0.00,Wunderground v.1.15,2013-06-01 10:08:00,
2013-06-01 06:09:00,63.3,60.0,30.20,South,184,1.0,6.0,89,0.00,,,0.00,Wunderground v.1.15,2013-06-01 10:09:00,
2013-06-01 06:10:00,63.3,60.0,30.20,SSW,195,5.0,5.0,89,0.00,,,0.00,Wunderground v.1.15,2013-06-01 10:10:00,
2013-06-01 06:13:00,63.5,59.9,30.20,South,169,4.0,6.0,88,0.00,,,0.00,Wunderground v.1.15,2013-06-01 10:13:00,
2013-06-01 06:14:00,63.5,59.9,30.20,SSW,200,3.0,7.0,88,0.00,,,0.00,Wunderground v.1.15,2013-06-01 10:14:00,
2013-06-01 06:15:00,63.6,60.0,30.20,South,173,4.0,7.0,88,0.00,,,0.00,Wunderground v.1.15,2013-06-01 10:15:00,
2013-06-01 06:18:00,63.8,60.2,30.20,South,180,2.0,7.0,88,0.00,,,0.00,Wunderground v.1.15,2013-06-01 10:18:00,
2013-06-01 06:19:00,63.8,60.2,30.20,South,191,3.0,7.0,88,0.00,,,0.00,Wunderground v.1.15,2013-06-01 10:19:00,
2013-06-01 06:20:00,63.9,60.3,30.20,SW,220,3.0,3.0,88,0.00,,,0.00,Wunderground v.1.15,2013-06-01 10:20:00,
2013-06-01 06:23:00,64.1,60.5,30.20,WSW,255,2.0,5.0,88,0.00,,,0.00,Wunderground v.1.15,2013-06-01 10:23:00,
2013-06-01 06:24:00,64.1,60.5,30.19,WSW,243,1.0,5.0,88,0.00,,,0.00,Wunderground v.1.15,2013-06-01 10:24:00,
2013-06-01 06:25:00,64.1,60.5,30.19,SW,234,2.0,5.0,88,0.00,,,0.00,Wunderground v.1.15,2013-06-01 10:25:00,
2013-06-01 06:26:00,64.2,60.6,30.20,SW,236,2.0,5.0,88,0.00,,,0.00,Wunderground v.1.15,2013-06-01 10:26:00,
2013-06-01 06:28:00,64.3,60.7,30.19,SW,221,1.0,5.0,88,0.00,,,0.00,Wunderground v.1.15,2013-06-01 10:28:00,
2013-06-01 06:29:00,64.3,60.7,30.19,SSW,211,2.0,5.0,88,0.00,,,0.00,Wunderground v.1.15,2013-06-01 10:29:00,
2013-06-01 06:30:00,64.4,60.8,30.19,SSW,205,2.0,2.0,88,0.00,,,0.00,Wunderground v.1.15,2013-06-01 10:30:00,
2013-06-01 06:31:00,64.4,60.8,30.19,SSW,196,3.0,3.0,88,0.00,,,0.00,Wunderground v.1.15,2013-06-01 10:31:00,
2013-06-01 06:33:00,64.5,60.9,30.19,West,259,0.0,3.0,88,0.00,,,0.00,Wunderground v.1.15,2013-06-01 10:33:00,
2013-06-01 06:34:00,64.5,60.9,30.19,WSW,250,1.0,3.0,88,0.00,,,0.00,Wunderground v.1.15,2013-06-01 10:34:00,
2013-06-01 06:35:00,64.5,60.9,30.19,South,173,1.0,3.0,88,0.00,,,0.00,Wunderground v.1.15,2013-06-01 10:35:00,
2013-06-01 06:36:00,64.5,60.9,30.19,West,260,1.0,3.0,88,0.00,,,0.00,Wunderground v.1.15,2013-06-01 10:36:00,
2013-06-01 06:39:00,64.6,60.6,30.19,West,276,1.0,3.0,87,0.00,,,0.00,Wunderground v.1.15,2013-06-01 10:39:00,
2013-06-01 06:40:00,64.6,60.6,30.19,SW,226,1.0,2.0,87,0.00,,,0.00,Wunderground v.1.15,2013-06-01 10:40:00,
2013-06-01 06:41:00,64.7,60.7,30.19,West,263,1.0,2.0,87,0.00,,,0.00,Wunderground v.1.15,2013-06-01 10:41:00,
2013-06-01 06:44:00,64.7,60.7,30.19,SSW,203,2.0,3.0,87,0.00,,,0.00,Wunderground v.1.15,2013-06-01 10:44:00,
2013-06-01 06:45:00,64.7,60.7,30.19,SSE,164,1.0,3.0,87,0.00,,,0.00,Wunderground v.1.15,2013-06-01 10:45:00,
2013-06-01 06:46:00,64.7,60.7,30.19,WSW,239,2.0,3.0,87,0.00,,,0.00,Wunderground v.1.15,2013-06-01 10:46:00,
2013-06-01 06:47:00,64.7,60.7,30.19,South,169,0.0,3.0,87,0.00,,,0.00,Wunderground v.1.15,2013-06-01 10:47:00,
2013-06-01 06:49:00,64.8,60.8,30.19,SSW,194,2.0,4.0,87,0.00,,,0.00,Wunderground v.1.15,2013-06-01 10:49:00,
2013-06-01 06:51:00,64.8,60.8,30.19,SW,234,1.0,3.0,87,0.00,,,0.00,Wunderground v.1.15,2013-06-01 10:51:00,
2013-06-01 06:52:00,64.8,60.8,30.19,WSW,237,2.0,3.0,87,0.00,,,0.00,Wunderground v.1.15,2013-06-01 10:52:00,
2013-06-01 06:53:00,64.8,60.8,30.19,WSW,240,1.0,3.0,87,0.00,,,0.00,Wunderground v.1.15,2013-06-01 10:53:00,
2013-06-01 06:55:00,64.9,60.9,30.19,SW,232,0.0,3.0,87,0.00,,,0.00,Wunderground v.1.15,2013-06-01 10:55:00,
2013-06-01 06:56:00,64.9,60.9,30.19,SW,232,0.0,3.0,87,0.00,,,0.00,Wunderground v.1.15,2013-06-01 10:56:00,
2013-06-01 06:57:00,64.9,60.9,30.19,SW,217,1.0,3.0,87,0.00,,,0.00,Wunderground v.1.15,2013-06-01 10:57:00,
2013-06-01 06:58:00,64.9,60.9,30.19,SW,217,0.0,3.0,87,0.00,,,0.00,Wunderground v.1.15,2013-06-01 10:58:00,
2013-06-01 07:01:00,64.9,60.9,30.19,WSW,242,1.0,2.0,87,0.00,,,0.00,Wunderground v.1.15,2013-06-01 11:01:00,
2013-06-01 07:02:00,64.9,60.9,30.19,WSW,240,0.0,2.0,87,0.00,,,0.00,Wunderground v.1.15,2013-06-01 11:02:00,
2013-06-01 07:03:00,64.9,60.9,30.19,WSW,242,0.0,2.0,87,0.00,,,0.00,Wunderground v.1.15,2013-06-01 11:03:00,
2013-06-01 07:07:00,65.0,61.0,30.19,SW,220,3.0,3.0,87,0.00,,,0.00,Wunderground v.1.15,2013-06-01 11:07:00,
2013-06-01 07:08:00,65.0,61.0,30.19,SW,223,2.0,3.0,87,0.00,,,0.00,Wunderground v.1.15,2013-06-01 11:08:00,
2013-06-01 07:12:00,65.0,61.0,30.19,SSW,213,0.0,4.0,87,0.00,,,0.00,Wunderground v.1.15,2013-06-01 11:12:00,
2013-06-01 07:13:00,65.0,61.0,30.19,SW,221,3.0,4.0,87,0.00,,,0.00,Wunderground v.1.15,2013-06-01 11:13:00,
2013-06-01 07:14:00,65.0,61.0,30.19,SW,225,2.0,4.0,87,0.00,,,0.00,Wunderground v.1.15,2013-06-01 11:14:00,
2013-06-01 07:17:00,65.0,61.0,30.19,SW,226,1.0,4.0,87,0.00,,,0.00,Wunderground v.1.15,2013-06-01 11:17:00,
2013-06-01 07:18:00,65.1,61.1,30.19,SW,226,2.0,4.0,87,0.00,,,0.00,Wunderground v.1.15,2013-06-01 11:18:00,
2013-06-01 07:19:00,65.1,61.1,30.19,SW,227,1.0,4.0,87,0.00,,,0.00,Wunderground v.1.15,2013-06-01 11:19:00,
2013-06-01 07:22:00,65.2,61.2,30.19,SW,227,0.0,1.0,87,0.00,,,0.00,Wunderground v.1.15,2013-06-01 11:22:00,
2013-06-01 07:23:00,65.2,61.2,30.20,SW,227,0.0,1.0,87,0.00,,,0.00,Wunderground v.1.15,2013-06-01 11:23:00,
2013-06-01 07:24:00,65.2,61.2,30.19,WSW,241,0.0,3.0,87,0.00,,,0.00,Wunderground v.1.15,2013-06-01 11:24:00,
2013-06-01 07:28:00,65.3,61.3,30.19,SW,232,2.0,3.0,87,0.00,,,0.00,Wunderground v.1.15,2013-06-01 11:28:00,
2013-06-01 07:29:00,65.3,61.3,30.19,WSW,241,0.0,3.0,87,0.00,,,0.00,Wunderground v.1.15,2013-06-01 11:29:00,
2013-06-01 07:30:00,65.3,61.3,30.19,WSW,241,0.0,1.0,87,0.00,,,0.00,Wunderground v.1.15,2013-06-01 11:30:00,
2013-06-01 07:33:00,65.3,61.3,30.19,SW,218,3.0,5.0,87,0.00,,,0.00,Wunderground v.1.15,2013-06-01 11:33:00,
2013-06-01 07:35:00,65.3,61.3,30.19,SW,218,1.0,5.0,87,0.00,,,0.00,Wunderground v.1.15,2013-06-01 11:35:00,
2013-06-01 07:38:00,65.3,61.3,30.19,SW,231,2.0,5.0,87,0.00,,,0.00,Wunderground v.1.15,2013-06-01 11:38:00,
2013-06-01 07:39:00,65.4,61.4,30.19,SW,229,1.0,5.0,87,0.00,,,0.00,Wunderground v.1.15,2013-06-01 11:39:00,
2013-06-01 07:40:00,65.4,61.4,30.19,West,273,2.0,2.0,87,0.00,,,0.00,Wunderground v.1.15,2013-06-01 11:40:00,
2013-06-01 07:43:00,65.5,61.5,30.19,SW,226,1.0,3.0,87,0.00,,,0.00,Wunderground v.1.15,2013-06-01 11:43:00,
2013-06-01 07:44:00,65.6,61.6,30.19,SW,230,1.0,3.0,87,0.00,,,0.00,Wunderground v.1.15,2013-06-01 11:44:00,
2013-06-01 07:45:00,65.6,61.6,30.19,WSW,241,2.0,4.0,87,0.00,,,0.00,Wunderground v.1.15,2013-06-01 11:45:00,
2013-06-01 07:49:00,65.8,61.8,30.19,South,182,3.0,5.0,87,0.00,,,0.00,Wunderground v.1.15,2013-06-01 11:49:00,
2013-06-01 07:50:00,65.9,61.9,30.19,WSW,242,3.0,3.0,87,0.00,,,0.00,Wunderground v.1.15,2013-06-01 11:50:00,
2013-06-01 07:51:00,65.9,61.9,30.19,WSW,238,4.0,8.0,87,0.00,,,0.00,Wunderground v.1.15,2013-06-01 11:51:00,
2013-06-01 07:54:00,66.1,62.1,30.19,SW,216,1.0,8.0,87,0.00,,,0.00,Wunderground v.1.15,2013-06-01 11:54:00,
2013-06-01 07:55:00,66.2,62.2,30.19,South,175,6.0,8.0,87,0.00,,,0.00,Wunderground v.1.15,2013-06-01 11:55:00,
2013-06-01 07:56:00,66.3,62.3,30.19,South,185,2.0,8.0,87,0.00,,,0.00,Wunderground v.1.15,2013-06-01 11:56:00,
2013-06-01 08:00:00,66.5,62.5,30.19,SW,236,1.0,10.0,87,0.00,,,0.00,Wunderground v.1.15,2013-06-01 12:00:00,
2013-06-01 08:01:00,66.6,62.6,30.19,SSW,213,4.0,5.0,87,0.00,,,0.00,Wunderground v.1.15,2013-06-01 12:01:00,
2013-06-01 08:05:00,66.8,62.5,30.19,SSW,213,2.0,8.0,86,0.00,,,0.00,Wunderground v.1.15,2013-06-01 12:05:00,
2013-06-01 08:06:00,66.9,62.6,30.19,SSW,213,1.0,8.0,86,0.00,,,0.00,Wunderground v.1.15,2013-06-01 12:06:00,
2013-06-01 08:10:00,67.0,62.7,30.19,WSW,241,4.0,4.0,86,0.00,,,0.00,Wunderground v.1.15,2013-06-01 12:10:00,
2013-06-01 08:11:00,67.1,62.8,30.19,SW,221,6.0,7.0,86,0.00,,,0.00,Wunderground v.1.15,2013-06-01 12:11:00,
2013-06-01 08:15:00,67.3,63.0,30.19,SSW,211,2.0,7.0,86,0.00,,,0.00,Wunderground v.1.15,2013-06-01 12:15:00,
2013-06-01 08:16:00,67.3,63.0,30.19,SW,224,1.0,7.0,86,0.00,,,0.00,Wunderground v.1.15,2013-06-01 12:16:00,
2013-06-01 08:20:00,67.5,62.8,30.20,SW,216,1.0,2.0,85,0.00,,,0.00,Wunderground v.1.15,2013-06-01 12:20:00,
2013-06-01 08:21:00,67.6,63.3,30.20,SSW,199,2.0,3.0,86,0.00,,,0.00,Wunderground v.1.15,2013-06-01 12:21:00,
2013-06-01 08:25:00,67.8,63.1,30.20,SW,226,6.0,6.0,85,0.00,,,0.00,Wunderground v.1.15,2013-06-01 12:25:00,
2013-06-01 08:26:00,67.9,63.2,30.20,SSW,211,5.0,7.0,85,0.00,,,0.00,Wunderground v.1.15,2013-06-01 12:26:00,
2013-06-01 08:27:00,67.9,63.2,30.20,SW,215,2.0,7.0,85,0.00,,,0.00,Wunderground v.1.15,2013-06-01 12:27:00,
2013-06-01 08:31:00,68.1,63.4,30.19,WSW,254,3.0,3.0,85,0.00,,,0.00,Wunderground v.1.15,2013-06-01 12:31:00,
2013-06-01 08:32:00,68.2,63.2,30.20,WNW,291,2.0,5.0,84,0.00,,,0.00,Wunderground v.1.15,2013-06-01 12:32:00,
2013-06-01 08:33:00,68.2,63.2,30.20,SW,218,2.0,5.0,84,0.00,,,0.00,Wunderground v.1.15,2013-06-01 12:33:00,
2013-06-01 08:36:00,68.2,63.2,30.20,West,276,3.0,5.0,84,0.00,,,0.00,Wunderground v.1.15,2013-06-01 12:36:00,
2013-06-01 08:37:00,68.3,63.3,30.20,South,183,4.0,7.0,84,0.00,,,0.00,Wunderground v.1.15,2013-06-01 12:37:00,
2013-06-01 08:38:00,68.3,63.3,30.20,West,266,0.0,7.0,84,0.00,,,0.00,Wunderground v.1.15,2013-06-01 12:38:00,
2013-06-01 08:42:00,68.5,63.5,30.20,West,263,1.0,9.0,84,0.00,,,0.00,Wunderground v.1.15,2013-06-01 12:42:00,
2013-06-01 08:43:00,68.5,63.5,30.20,West,280,2.0,9.0,84,0.00,,,0.00,Wunderground v.1.15,2013-06-01 12:43:00,
2013-06-01 08:47:00,68.6,63.2,30.20,WNW,292,3.0,9.0,83,0.00,,,0.00,Wunderground v.1.15,2013-06-01 12:47:00,
2013-06-01 08:49:00,68.7,63.7,30.20,West,276,1.0,9.0,84,0.00,,,0.00,Wunderground v.1.15,2013-06-01 12:49:00,
2013-06-01 08:52:00,68.8,63.4,30.20,SSW,198,2.0,4.0,83,0.00,,,0.00,Wunderground v.1.15,2013-06-01 12:52:00,
2013-06-01 08:53:00,68.8,63.4,30.20,West,277,1.0,4.0,83,0.00,,,0.00,Wunderground v.1.15,2013-06-01 12:53:00,
2013-06-01 08:54:00,68.9,63.9,30.20,West,271,0.0,6.0,84,0.00,,,0.00,Wunderground v.1.15,2013-06-01 12:54:00,
2013-06-01 08:57:00,69.0,63.6,30.20,West,263,1.0,6.0,83,0.00,,,0.00,Wunderground v.1.15,2013-06-01 12:57:00,
2013-06-01 08:58:00,69.0,63.6,30.20,South,178,2.0,6.0,83,0.00,,,0.00,Wunderground v.1.15,2013-06-01 12:58:00,
2013-06-01 08:59:00,69.0,63.6,30.20,South,171,4.0,6.0,83,0.00,,,0.00,Wunderground v.1.15,2013-06-01 12:59:00,
2013-06-01 09:03:00,69.2,63.8,30.20,SSW,201,2.0,6.0,83,0.00,,,0.00,Wunderground v.1.15,2013-06-01 13:03:00,
2013-06-01 09:04:00,69.3,63.9,30.20,SSW,203,1.0,6.0,83,0.00,,,0.00,Wunderground v.1.15,2013-06-01 13:04:00,
2013-06-01 09:08:00,69.6,63.9,30.20,WSW,240,3.0,6.0,82,0.00,,,0.00,Wunderground v.1.15,2013-06-01 13:08:00,
2013-06-01 09:09:00,69.6,63.9,30.20,West,259,2.0,6.0,82,0.00,,,0.00,Wunderground v.1.15,2013-06-01 13:09:00,
2013-06-01 09:13:00,69.8,63.7,30.20,WNW,286,4.0,8.0,81,0.00,,,0.00,Wunderground v.1.15,2013-06-01 13:13:00,
2013-06-01 09:14:00,69.9,63.4,30.20,WNW,290,7.0,8.0,80,0.00,,,0.00,Wunderground v.1.15,2013-06-01 13:14:00,
2013-06-01 09:15:00,69.9,63.4,30.20,WSW,246,4.0,8.0,80,0.00,,,0.00,Wunderground v.1.15,2013-06-01 13:15:00,
2013-06-01 09:18:00,70.1,63.6,30.20,West,263,3.0,8.0,80,0.00,,,0.00,Wunderground v.1.15,2013-06-01 13:18:00,
2013-06-01 09:19:00,70.1,63.6,30.20,SSW,205,4.0,8.0,80,0.00,,,0.00,Wunderground v.1.15,2013-06-01 13:19:00,
2013-06-01 09:20:00,70.1,63.6,30.20,WSW,252,2.0,4.0,80,0.00,,,0.00,Wunderground v.1.15,2013-06-01 13:20:00,
2013-06-01 09:23:00,70.2,63.7,30.20,South,190,5.0,9.0,80,0.00,,,0.00,Wunderground v.1.15,2013-06-01 13:23:00,
2013-06-01 09:24:00,70.2,63.7,30.20,SW,230,9.0,9.0,80,0.00,,,0.00,Wunderground v.1.15,2013-06-01 13:24:00,
2013-06-01 09:25:00,70.3,63.8,30.20,WSW,247,7.0,11.0,80,0.00,,,0.00,Wunderground v.1.15,2013-06-01 13:25:00,
2013-06-01 09:28:00,70.4,63.9,30.20,SSW,206,4.0,11.0,80,0.00,,,0.00,Wunderground v.1.15,2013-06-01 13:28:00,
2013-06-01 09:30:00,70.4,63.9,30.20,SSW,194,4.0,4.0,80,0.00,,,0.00,Wunderground v.1.15,2013-06-01 13:30:00,
2013-06-01 09:31:00,70.5,64.0,30.20,West,261,8.0,10.0,80,0.00,,,0.00,Wunderground v.1.15,2013-06-01 13:31:00,
2013-06-01 09:33:00,70.8,64.0,30.20,West,278,4.0,10.0,79,0.00,,,0.00,Wunderground v.1.15,2013-06-01 13:33:00,
2013-06-01 09:35:00,70.9,64.1,30.20,SW,233,6.0,10.0,79,0.00,,,0.00,Wunderground v.1.15,2013-06-01 13:35:00,
2013-06-01 09:36:00,71.1,64.3,30.20,SSW,205,6.0,10.0,79,0.00,,,0.00,Wunderground v.1.15,2013-06-01 13:36:00,
2013-06-01 09:39:00,71.3,64.4,30.20,SW,216,5.0,10.0,79,0.00,,,0.00,Wunderground v.1.15,2013-06-01 13:39:00,
2013-06-01 09:40:00,71.4,64.2,30.20,South,190,9.0,9.0,78,0.00,,,0.00,Wunderground v.1.15,2013-06-01 13:40:00,
2013-06-01 09:42:00,71.6,64.0,30.20,SW,224,7.0,10.0,77,0.00,,,0.00,Wunderground v.1.15,2013-06-01 13:42:00,
2013-06-01 09:44:00,71.7,64.5,30.20,WNW,294,2.0,11.0,78,0.00,,,0.00,Wunderground v.1.15,2013-06-01 13:44:00,
2013-06-01 09:45:00,71.8,64.6,30.20,WSW,245,4.0,11.0,78,0.00,,,0.00,Wunderground v.1.15,2013-06-01 13:45:00,
2013-06-01 09:46:00,71.9,64.7,30.20,WSW,244,3.0,11.0,78,0.00,,,0.00,Wunderground v.1.15,2013-06-01 13:46:00,
2013-06-01 09:47:00,72.0,64.0,30.20,SW,233,2.0,11.0,76,0.00,,,0.00,Wunderground v.1.15,2013-06-01 13:47:00,
2013-06-01 09:49:00,72.2,64.6,30.20,SW,222,2.0,11.0,77,0.00,,,0.00,Wunderground v.1.15,2013-06-01 13:49:00,
2013-06-01 09:50:00,72.2,64.6,30.20,SW,235,1.0,5.0,77,0.00,,,0.00,Wunderground v.1.15,2013-06-01 13:50:00,
2013-06-01 09:51:00,72.3,64.7,30.20,North,355,2.0,7.0,77,0.00,,,0.00,Wunderground v.1.15,2013-06-01 13:51:00,
2013-06-01 09:53:00,72.6,65.3,30.20,SSW,209,3.0,7.0,78,0.00,,,0.00,Wunderground v.1.15,2013-06-01 13:53:00,
2013-06-01 09:55:00,72.8,65.2,30.20,SW,234,8.0,8.0,77,0.00,,,0.00,Wunderground v.1.15,2013-06-01 13:55:00,
2013-06-01 09:56:00,72.8,64.4,30.20,WSW,240,4.0,8.0,75,0.00,,,0.00,Wunderground v.1.15,2013-06-01 13:56:00,
2013-06-01 09:58:00,72.7,63.9,30.20,WSW,252,4.0,8.0,74,0.00,,,0.00,Wunderground v.1.15,2013-06-01 13:58:00,
2013-06-01 10:00:00,72.7,63.9,30.20,SW,229,2.0,6.0,74,0.00,,,0.00,Wunderground v.1.15,2013-06-01 14:00:00,
2013-06-01 10:01:00,72.6,63.8,30.20,South,176,4.0,6.0,74,0.00,,,0.00,Wunderground v.1.15,2013-06-01 14:01:00,
2013-06-01 10:04:00,72.6,64.2,30.20,SW,223,3.0,12.0,75,0.00,,,0.00,Wunderground v.1.15,2013-06-01 14:04:00,
2013-06-01 10:05:00,72.5,63.7,30.19,WSW,244,6.0,12.0,74,0.00,,,0.00,Wunderground v.1.15,2013-06-01 14:05:00,
2013-06-01 10:06:00,72.5,64.1,30.19,WSW,250,4.0,12.0,75,0.00,,,0.00,Wunderground v.1.15,2013-06-01 14:06:00,
2013-06-01 10:09:00,72.5,64.1,30.19,SW,221,7.0,12.0,75,0.00,,,0.00,Wunderground v.1.15,2013-06-01 14:09:00,
2013-06-01 10:10:00,72.5,64.1,30.19,WSW,251,2.0,8.0,75,0.00,,,0.00,Wunderground v.1.15,2013-06-01 14:10:00,
2013-06-01 10:11:00,72.5,64.1,30.19,SW,219,2.0,8.0,75,0.00,,,0.00,Wunderground v.1.15,2013-06-01 14:11:00,
2013-06-01 10:14:00,72.7,63.9,30.19,SW,236,2.0,9.0,74,0.00,,,0.00,Wunderground v.1.15,2013-06-01 14:14:00,
2013-06-01 10:16:00,72.6,63.4,30.19,WNW,290,2.0,9.0,73,0.00,,,0.00,Wunderground v.1.15,2013-06-01 14:16:00,
2013-06-01 10:17:00,72.6,63.8,30.19,SW,232,5.0,9.0,74,0.00,,,0.00,Wunderground v.1.15,2013-06-01 14:17:00,
2013-06-01 10:20:00,72.8,64.0,30.19,SSW,200,6.0,10.0,74,0.00,,,0.00,Wunderground v.1.15,2013-06-01 14:20:00,
2013-06-01 10:21:00,72.8,64.0,30.19,SW,229,7.0,12.0,74,0.00,,,0.00,Wunderground v.1.15,2013-06-01 14:21:00,
2013-06-01 10:22:00,72.8,64.0,30.19,SW,228,9.0,12.0,74,0.00,,,0.00,Wunderground v.1.15,2013-06-01 14:22:00,
2013-06-01 10:25:00,73.0,64.2,30.19,WSW,239,3.0,12.0,74,0.00,,,0.00,Wunderground v.1.15,2013-06-01 14:25:00,
2013-06-01 10:27:00,73.1,63.9,30.19,WNW,293,2.0,12.0,73,0.00,,,0.00,Wunderground v.1.15,2013-06-01 14:27:00,
2013-06-01 10:31:00,73.3,64.1,30.20,WSW,242,5.0,7.0,73,0.00,,,0.00,Wunderground v.1.15,2013-06-01 14:31:00,
2013-06-01 10:32:00,73.4,64.2,30.20,SSW,211,5.0,7.0,73,0.00,,,0.00,Wunderground v.1.15,2013-06-01 14:32:00,
2013-06-01 10:33:00,73.4,64.2,30.20,SSW,208,7.0,10.0,73,0.00,,,0.00,Wunderground v.1.15,2013-06-01 14:33:00,
2013-06-01 10:37:00,73.9,64.3,30.20,South,188,5.0,11.0,72,0.00,,,0.00,Wunderground v.1.15,2013-06-01 14:37:00,
2013-06-01 10:38:00,73.9,63.9,30.20,SE,136,0.0,11.0,71,0.00,,,0.00,Wunderground v.1.15,2013-06-01 14:38:00,
2013-06-01 10:42:00,74.2,64.6,30.19,SSW,202,5.0,11.0,72,0.00,,,0.00,Wunderground v.1.15,2013-06-01 14:42:00,
2013-06-01 10:43:00,74.4,64.8,30.19,SSW,206,9.0,11.0,72,0.00,,,0.00,Wunderground v.1.15,2013-06-01 14:43:00,
2013-06-01 10:44:00,74.4,64.8,30.19,SW,229,4.0,11.0,72,0.00,,,0.00,Wunderground v.1.15,2013-06-01 14:44:00,
2013-06-01 10:47:00,74.7,63.9,30.19,SW,235,9.0,14.0,69,0.00,,,0.00,Wunderground v.1.15,2013-06-01 14:47:00,
2013-06-01 10:48:00,74.7,63.4,30.19,WSW,246,6.0,14.0,68,0.00,,,0.00,Wunderground v.1.15,2013-06-01 14:48:00,
2013-06-01 10:52:00,74.7,63.0,30.19,WNW,286,6.0,8.0,67,0.00,,,0.00,Wunderground v.1.15,2013-06-01 14:52:00,
2013-06-01 10:53:00,74.7,63.4,30.19,SSW,197,5.0,9.0,68,0.00,,,0.00,Wunderground v.1.15,2013-06-01 14:53:00,
2013-06-01 10:54:00,74.7,63.4,30.19,SW,225,5.0,9.0,68,0.00,,,0.00,Wunderground v.1.15,2013-06-01 14:54:00,
2013-06-01 10:57:00,74.9,63.6,30.19,SSW,199,4.0,12.0,68,0.00,,,0.00,Wunderground v.1.15,2013-06-01 14:57:00,
2013-06-01 10:58:00,74.9,64.0,30.19,SW,234,8.0,14.0,69,0.00,,,0.00,Wunderground v.1.15,2013-06-01 14:58:00,
2013-06-01 10:59:00,74.9,64.0,30.19,South,181,3.0,14.0,69,0.00,,,0.00,Wunderground v.1.15,2013-06-01 14:59:00,
2013-06-01 11:00:00,75.1,64.2,30.19,South,183,6.0,6.0,69,0.00,,,0.00,Wunderground v.1.15,2013-06-01 15:00:00,
2013-06-01 11:03:00,75.4,63.7,30.19,WSW,238,3.0,9.0,67,0.00,,,0.00,Wunderground v.1.15,2013-06-01 15:03:00,
2013-06-01 11:04:00,75.5,63.8,30.19,WSW,250,6.0,10.0,67,0.00,,,0.00,Wunderground v.1.15,2013-06-01 15:04:00,
2013-06-01 11:06:00,75.7,63.5,30.19,SSW,209,8.0,10.0,66,0.00,,,0.00,Wunderground v.1.15,2013-06-01 15:06:00,
2013-06-01 11:08:00,75.7,63.1,30.19,WNW,284,4.0,10.0,65,0.00,,,0.00,Wunderground v.1.15,2013-06-01 15:08:00,
2013-06-01 11:09:00,75.7,63.1,30.19,SW,221,1.0,10.0,65,0.00,,,0.00,Wunderground v.1.15,2013-06-01 15:09:00,
2013-06-01 11:11:00,75.7,63.1,30.19,SSW,198,2.0,7.0,65,0.00,,,0.00,Wunderground v.1.15,2013-06-01 15:11:00,
2013-06-01 11:13:00,75.5,63.3,30.19,WNW,299,3.0,11.0,66,0.00,,,0.00,Wunderground v.1.15,2013-06-01 15:13:00,
2013-06-01 11:14:00,75.5,62.9,30.19,WNW,292,2.0,11.0,65,0.00,,,0.00,Wunderground v.1.15,2013-06-01 15:14:00,
2013-06-01 11:16:00,75.5,63.3,30.19,WNW,294,5.0,11.0,66,0.00,,,0.00,Wunderground v.1.15,2013-06-01 15:16:00,
2013-06-01 11:18:00,75.7,63.5,30.19,South,173,7.0,11.0,66,0.00,,,0.00,Wunderground v.1.15,2013-06-01 15:18:00,
2013-06-01 11:19:00,75.8,63.6,30.19,West,279,3.0,11.0,66,0.00,,,0.00,Wunderground v.1.15,2013-06-01 15:19:00,
2013-06-01 11:21:00,75.9,63.7,30.19,SSW,213,4.0,6.0,66,0.00,,,0.00,Wunderground v.1.15,2013-06-01 15:21:00,
2013-06-01 11:24:00,76.0,63.8,30.19,SSW,198,1.0,10.0,66,0.00,,,0.00,Wunderground v.1.15,2013-06-01 15:24:00,
2013-06-01 11:25:00,76.1,63.9,30.19,SSE,147,5.0,10.0,66,0.00,,,0.00,Wunderground v.1.15,2013-06-01 15:25:00,
2013-06-01 11:27:00,76.2,63.6,30.19,SSE,153,8.0,11.0,65,0.00,,,0.00,Wunderground v.1.15,2013-06-01 15:27:00,
2013-06-01 11:29:00,76.5,64.3,30.19,WSW,240,5.0,11.0,66,0.00,,,0.00,Wunderground v.1.15,2013-06-01 15:29:00,
2013-06-01 11:30:00,76.5,64.3,30.19,South,184,9.0,9.0,66,0.00,,,0.00,Wunderground v.1.15,2013-06-01 15:30:00,
2013-06-01 11:32:00,76.6,64.0,30.19,SE,144,5.0,12.0,65,0.00,,,0.00,Wunderground v.1.15,2013-06-01 15:32:00,
2013-06-01 11:34:00,76.5,63.0,30.19,SE,126,4.0,12.0,63,0.00,,,0.00,Wunderground v.1.15,2013-06-01 15:34:00,
2013-06-01 11:35:00,76.4,62.9,30.19,SSE,157,9.0,12.0,63,0.00,,,0.00,Wunderground v.1.15,2013-06-01 15:35:00,
2013-06-01 11:37:00,76.2,63.6,30.19,South,180,5.0,13.0,65,0.00,,,0.00,Wunderground v.1.15,2013-06-01 15:37:00,
2013-06-01 11:39:00,76.3,64.1,30.19,South,174,4.0,13.0,66,0.00,,,0.00,Wunderground v.1.15,2013-06-01 15:39:00,
2013-06-01 11:40:00,76.4,63.3,30.19,WSW,247,2.0,6.0,64,0.00,,,0.00,Wunderground v.1.15,2013-06-01 15:40:00,
2013-06-01 11:42:00,76.3,63.2,30.19,South,188,10.0,10.0,64,0.00,,,0.00,Wunderground v.1.15,2013-06-01 15:42:00,
2013-06-01 11:44:00,76.3,63.7,30.19,South,181,7.0,10.0,65,0.00,,,0.00,Wunderground v.1.15,2013-06-01 15:44:00,
2013-06-01 11:45:00,76.3,63.7,30.19,SE,143,5.0,10.0,65,0.00,,,0.00,Wunderground v.1.15,2013-06-01 15:45:00,
2013-06-01 11:46:00,76.3,63.7,30.19,SW,223,2.0,10.0,65,0.00,,,0.00,Wunderground v.1.15,2013-06-01 15:46:00,
2013-06-01 11:47:00,76.4,63.8,30.19,South,180,8.0,10.0,65,0.00,,,0.00,Wunderground v.1.15,2013-06-01 15:47:00,
2013-06-01 11:50:00,76.6,63.5,30.18,West,265,11.0,11.0,64,0.00,,,0.00,Wunderground v.1.15,2013-06-01 15:50:00,
2013-06-01 11:51:00,76.7,63.2,30.18,West,264,5.0,11.0,63,0.00,,,0.00,Wunderground v.1.15,2013-06-01 15:51:00,
2013-06-01 11:52:00,76.7,62.7,30.18,SSW,196,4.0,11.0,62,0.00,,,0.00,Wunderground v.1.15,2013-06-01 15:52:00,
2013-06-01 11:55:00,76.9,63.3,30.18,South,190,8.0,11.0,63,0.00,,,0.00,Wunderground v.1.15,2013-06-01 15:55:00,
2013-06-01 11:56:00,76.9,62.9,30.18,SW,219,7.0,11.0,62,0.00,,,0.00,Wunderground v.1.15,2013-06-01 15:56:00,
2013-06-01 11:57:00,77.0,63.0,30.18,WSW,247,6.0,11.0,62,0.00,,,0.00,Wunderground v.1.15,2013-06-01 15:57:00,
2013-06-01 11:58:00,76.9,62.4,30.18,SSW,198,3.0,11.0,61,0.00,,,0.00,Wunderground v.1.15,2013-06-01 15:58:00,
2013-06-01 12:00:00,77.0,63.0,30.18,WNW,286,2.0,6.0,62,0.00,,,0.00,Wunderground v.1.15,2013-06-01 16:00:00,
2013-06-01 12:01:00,77.1,63.1,30.18,West,259,4.0,6.0,62,0.00,,,0.00,Wunderground v.1.15,2013-06-01 16:01:00,
2013-06-01 12:02:00,77.2,63.2,30.18,WSW,241,3.0,9.0,62,0.00,,,0.00,Wunderground v.1.15,2013-06-01 16:02:00,
2013-06-01 12:03:00,77.2,63.2,30.18,South,182,3.0,9.0,62,0.00,,,0.00,Wunderground v.1.15,2013-06-01 16:03:00,
2013-06-01 12:05:00,77.3,63.7,30.18,West,262,5.0,9.0,63,0.00,,,0.00,Wunderground v.1.15,2013-06-01 16:05:00,
2013-06-01 12:06:00,77.3,63.7,30.18,South,191,6.0,13.0,63,0.00,,,0.00,Wunderground v.1.15,2013-06-01 16:06:00,
2013-06-01 12:07:00,77.3,63.7,30.18,SE,134,10.0,13.0,63,0.00,,,0.00,Wunderground v.1.15,2013-06-01 16:07:00,
2013-06-01 12:08:00,77.5,63.5,30.18,SE,144,8.0,14.0,62,0.00,,,0.00,Wunderground v.1.15,2013-06-01 16:08:00,
2013-06-01 12:11:00,77.7,64.1,30.18,South,175,6.0,11.0,63,0.00,,,0.00,Wunderground v.1.15,2013-06-01 16:11:00,
2013-06-01 12:12:00,77.7,62.7,30.18,WSW,254,7.0,11.0,60,0.00,,,0.00,Wunderground v.1.15,2013-06-01 16:12:00,
2013-06-01 12:13:00,77.6,63.1,30.17,South,171,0.0,11.0,61,0.00,,,0.00,Wunderground v.1.15,2013-06-01 16:13:00,
2013-06-01 12:16:00,77.3,63.3,30.17,SSW,213,4.0,11.0,62,0.00,,,0.00,Wunderground v.1.15,2013-06-01 16:16:00,
2013-06-01 12:17:00,77.2,62.7,30.17,South,182,5.0,11.0,61,0.00,,,0.00,Wunderground v.1.15,2013-06-01 16:17:00,
2013-06-01 12:20:00,77.3,62.8,30.18,South,181,8.0,10.0,61,0.00,,,0.00,Wunderground v.1.15,2013-06-01 16:20:00,
2013-06-01 12:21:00,77.3,64.2,30.17,ESE,103,4.0,10.0,64,0.00,,,0.00,Wunderground v.1.15,2013-06-01 16:21:00,
2013-06-01 12:22:00,77.4,64.3,30.17,SSE,164,9.0,11.0,64,0.00,,,0.00,Wunderground v.1.15,2013-06-01 16:22:00,
2013-06-01 12:23:00,77.6,64.0,30.17,NNE,32,3.0,11.0,63,0.00,,,0.00,Wunderground v.1.15,2013-06-01 16:23:00,
2013-06-01 12:26:00,77.7,62.7,30.17,SSE,165,7.0,11.0,60,0.00,,,0.00,Wunderground v.1.15,2013-06-01 16:26:00,
2013-06-01 12:27:00,77.7,62.7,30.17,South,175,11.0,11.0,60,0.00,,,0.00,Wunderground v.1.15,2013-06-01 16:27:00,
2013-06-01 12:28:00,77.6,62.6,30.17,SSW,210,6.0,11.0,60,0.00,,,0.00,Wunderground v.1.15,2013-06-01 16:28:00,
2013-06-01 12:31:00,77.4,62.4,30.17,West,262,5.0,9.0,60,0.00,,,0.00,Wunderground v.1.15,2013-06-01 16:31:00,
2013-06-01 12:32:00,77.3,61.9,30.17,West,259,6.0,9.0,59,0.00,,,0.00,Wunderground v.1.15,2013-06-01 16:32:00,
2013-06-01 12:33:00,77.2,62.7,30.17,SW,224,6.0,10.0,61,0.00,,,0.00,Wunderground v.1.15,2013-06-01 16:33:00,
2013-06-01 12:34:00,77.2,62.7,30.17,WSW,243,9.0,10.0,61,0.00,,,0.00,Wunderground v.1.15,2013-06-01 16:34:00,
2013-06-01 12:36:00,77.1,62.6,30.17,SSW,197,7.0,12.0,61,0.00,,,0.00,Wunderground v.1.15,2013-06-01 16:36:00,
2013-06-01 12:37:00,77.0,62.5,30.17,SW,217,8.0,15.0,61,0.00,,,0.00,Wunderground v.1.15,2013-06-01 16:37:00,
2013-06-01 12:39:00,76.9,62.0,30.17,SW,236,3.0,15.0,60,0.00,,,0.00,Wunderground v.1.15,2013-06-01 16:39:00,
2013-06-01 12:42:00,77.0,62.5,30.17,South,187,9.0,14.0,61,0.00,,,0.00,Wunderground v.1.15,2013-06-01 16:42:00,
2013-06-01 12:43:00,77.0,63.4,30.17,WSW,250,3.0,14.0,63,0.00,,,0.00,Wunderground v.1.15,2013-06-01 16:43:00,
2013-06-01 12:44:00,77.0,63.4,30.17,SSE,159,6.0,14.0,63,0.00,,,0.00,Wunderground v.1.15,2013-06-01 16:44:00,
2013-06-01 12:47:00,77.2,64.1,30.17,SW,214,7.0,14.0,64,0.00,,,0.00,Wunderground v.1.15,2013-06-01 16:47:00,
2013-06-01 12:48:00,77.3,63.7,30.17,NW,309,3.0,14.0,63,0.00,,,0.00,Wunderground v.1.15,2013-06-01 16:48:00,
2013-06-01 12:49:00,77.4,63.8,30.17,SW,227,6.0,14.0,63,0.00,,,0.00,Wunderground v.1.15,2013-06-01 16:49:00,
2013-06-01 12:53:00,77.9,63.4,30.17,SSW,213,4.0,8.0,61,0.00,,,0.00,Wunderground v.1.15,2013-06-01 16:53:00,
2013-06-01 12:54:00,78.0,63.9,30.17,SW,236,4.0,10.0,62,0.00,,,0.00,Wunderground v.1.15,2013-06-01 16:54:00,
2013-06-01 12:58:00,78.2,63.2,30.17,SW,236,3.0,10.0,60,0.00,,,0.00,Wunderground v.1.15,2013-06-01 16:58:00,
2013-06-01 12:59:00,78.0,63.0,30.17,WSW,242,7.0,10.0,60,0.00,,,0.00,Wunderground v.1.15,2013-06-01 16:59:00,
2013-06-01 13:00:00,78.1,63.6,30.17,West,265,6.0,7.0,61,0.00,,,0.00,Wunderground v.1.15,2013-06-01 17:00:00,
2013-06-01 13:03:00,78.0,63.0,30.17,SSW,208,5.0,13.0,60,0.00,,,0.00,Wunderground v.1.15,2013-06-01 17:03:00,
2013-06-01 13:04:00,78.0,63.5,30.17,South,180,9.0,13.0,61,0.00,,,0.00,Wunderground v.1.15,2013-06-01 17:04:00,
2013-06-01 13:05:00,78.1,63.6,30.17,SSE,167,4.0,13.0,61,0.00,,,0.00,Wunderground v.1.15,2013-06-01 17:05:00,
2013-06-01 13:08:00,78.0,63.9,30.17,South,176,6.0,13.0,62,0.00,,,0.00,Wunderground v.1.15,2013-06-01 17:08:00,
2013-06-01 13:09:00,78.1,64.0,30.17,SSW,196,3.0,13.0,62,0.00,,,0.00,Wunderground v.1.15,2013-06-01 17:09:00,
2013-06-01 13:10:00,78.1,64.5,30.17,SSW,192,2.0,6.0,63,0.00,,,0.00,Wunderground v.1.15,2013-06-01 17:10:00,
2013-06-01 13:11:00,78.2,64.6,30.17,SSW,196,7.0,7.0,63,0.00,,,0.00,Wunderground v.1.15,2013-06-01 17:11:00,
2013-06-01 13:14:00,78.2,63.6,30.17,South,181,8.0,9.0,61,0.00,,,0.00,Wunderground v.1.15,2013-06-01 17:14:00,
2013-06-01 13:15:00,78.2,63.6,30.17,South,189,3.0,9.0,61,0.00,,,0.00,Wunderground v.1.15,2013-06-01 17:15:00,
2013-06-01 13:16:00,78.1,63.1,30.17,WSW,255,6.0,9.0,60,0.00,,,0.00,Wunderground v.1.15,2013-06-01 17:16:00,
2013-06-01 13:19:00,77.9,63.8,30.17,SSW,206,12.0,14.0,62,0.00,,,0.00,Wunderground v.1.15,2013-06-01 17:19:00,
2013-06-01 13:20:00,77.9,63.8,30.17,NW,308,6.0,9.0,62,0.00,,,0.00,Wunderground v.1.15,2013-06-01 17:20:00,
2013-06-01 13:21:00,77.9,63.4,30.17,SSE,163,7.0,13.0,61,0.00,,,0.00,Wunderground v.1.15,2013-06-01 17:21:00,
2013-06-01 13:25:00,77.8,63.3,30.17,South,182,6.0,13.0,61,0.00,,,0.00,Wunderground v.1.15,2013-06-01 17:25:00,
2013-06-01 13:26:00,77.7,63.2,30.17,SE,140,11.0,15.0,61,0.00,,,0.00,Wunderground v.1.15,2013-06-01 17:26:00,
2013-06-01 13:27:00,77.8,63.7,30.17,West,275,6.0,15.0,62,0.00,,,0.00,Wunderground v.1.15,2013-06-01 17:27:00,
2013-06-01 13:30:00,77.6,63.1,30.17,WSW,249,10.0,10.0,61,0.00,,,0.00,Wunderground v.1.15,2013-06-01 17:30:00,
2013-06-01 13:31:00,77.6,63.5,30.17,WSW,247,7.0,13.0,62,0.00,,,0.00,Wunderground v.1.15,2013-06-01 17:31:00,
2013-06-01 13:32:00,77.7,63.6,30.17,WSW,250,12.0,18.0,62,0.00,,,0.00,Wunderground v.1.15,2013-06-01 17:32:00,
2013-06-01 13:36:00,77.8,63.7,30.16,SW,226,6.0,18.0,62,0.00,,,0.00,Wunderground v.1.15,2013-06-01 17:36:00,
2013-06-01 13:37:00,77.9,64.3,30.17,South,186,5.0,18.0,63,0.00,,,0.00,Wunderground v.1.15,2013-06-01 17:37:00,
2013-06-01 13:41:00,78.1,63.6,30.17,SSW,198,6.0,11.0,61,0.00,,,0.00,Wunderground v.1.15,2013-06-01 17:41:00,
2013-06-01 13:42:00,78.1,63.6,30.16,WSW,248,8.0,12.0,61,0.00,,,0.00,Wunderground v.1.15,2013-06-01 17:42:00,
2013-06-01 13:43:00,78.1,63.6,30.16,NW,317,6.0,13.0,61,0.00,,,0.00,Wunderground v.1.15,2013-06-01 17:43:00,
2013-06-01 13:46:00,77.7,63.2,30.17,SSE,148,6.0,16.0,61,0.00,,,0.00,Wunderground v.1.15,2013-06-01 17:46:00,
2013-06-01 13:47:00,77.5,63.0,30.17,SSW,208,4.0,16.0,61,0.00,,,0.00,Wunderground v.1.15,2013-06-01 17:47:00,
2013-06-01 13:48:00,77.3,62.8,30.17,South,173,10.0,16.0,61,0.00,,,0.00,Wunderground v.1.15,2013-06-01 17:48:00,
2013-06-01 13:51:00,77.1,63.1,30.17,West,273,5.0,9.0,62,0.00,,,0.00,Wunderground v.1.15,2013-06-01 17:51:00,
2013-06-01 13:53:00,77.3,63.3,30.17,SSW,196,10.0,17.0,62,0.00,,,0.00,Wunderground v.1.15,2013-06-01 17:53:00,
2013-06-01 13:54:00,77.5,63.9,30.17,SSW,194,6.0,17.0,63,0.00,,,0.00,Wunderground v.1.15,2013-06-01 17:54:00,
2013-06-01 13:55:00,77.5,63.0,30.17,SSE,153,12.0,17.0,61,0.00,,,0.00,Wunderground v.1.15,2013-06-01 17:55:00,
2013-06-01 13:56:00,77.5,63.0,30.17,SW,229,10.0,17.0,61,0.00,,,0.00,Wunderground v.1.15,2013-06-01 17:56:00,
2013-06-01 13:58:00,77.5,63.5,30.17,SW,232,5.0,17.0,62,0.00,,,0.00,Wunderground v.1.15,2013-06-01 17:58:00,
2013-06-01 13:59:00,77.5,63.5,30.17,SW,233,4.0,17.0,62,0.00,,,0.00,Wunderground v.1.15,2013-06-01 17:59:00,
2013-06-01 14:00:00,77.4,63.4,30.17,WSW,247,6.0,7.0,62,0.00,,,0.00,Wunderground v.1.15,2013-06-01 18:00:00,
2013-06-01 14:01:00,77.4,63.8,30.17,South,182,4.0,7.0,63,0.00,,,0.00,Wunderground v.1.15,2013-06-01 18:01:00,
2013-06-01 14:03:00,77.3,63.7,30.17,West,269,6.0,9.0,63,0.00,,,0.00,Wunderground v.1.15,2013-06-01 18:03:00,
2013-06-01 14:04:00,77.4,63.8,30.17,West,270,2.0,9.0,63,0.00,,,0.00,Wunderground v.1.15,2013-06-01 18:04:00,
2013-06-01 14:05:00,77.4,63.4,30.17,SW,226,5.0,11.0,62,0.00,,,0.00,Wunderground v.1.15,2013-06-01 18:05:00,
2013-06-01 14:08:00,77.4,63.4,30.17,SSW,195,4.0,11.0,62,0.00,,,0.00,Wunderground v.1.15,2013-06-01 18:08:00,
2013-06-01 14:09:00,77.3,63.7,30.17,South,188,3.0,11.0,63,0.00,,,0.00,Wunderground v.1.15,2013-06-01 18:09:00,
2013-06-01 14:12:00,77.8,63.7,30.17,SSW,200,3.0,13.0,62,0.00,,,0.00,Wunderground v.1.15,2013-06-01 18:12:00,
2013-06-01 14:13:00,77.9,63.8,30.17,SE,132,8.0,13.0,62,0.00,,,0.00,Wunderground v.1.15,2013-06-01 18:13:00,
2013-06-01 14:14:00,78.0,63.9,30.17,South,188,5.0,13.0,62,0.00,,,0.00,Wunderground v.1.15,2013-06-01 18:14:00,
2013-06-01 14:17:00,78.1,63.6,30.17,SW,230,9.0,13.0,61,0.00,,,0.00,Wunderground v.1.15,2013-06-01 18:17:00,
2013-06-01 14:18:00,78.2,63.6,30.17,West,261,6.0,13.0,61,0.00,,,0.00,Wunderground v.1.15,2013-06-01 18:18:00,
2013-06-01 14:19:00,78.1,63.6,30.17,SW,225,2.0,13.0,61,0.00,,,0.00,Wunderground v.1.15,2013-06-01 18:19:00,
2013-06-01 14:20:00,78.1,64.0,30.17,SW,217,6.0,7.0,62,0.00,,,0.00,Wunderground v.1.15,2013-06-01 18:20:00,
2013-06-01 14:22:00,78.2,63.6,30.17,SSW,198,7.0,8.0,61,0.00,,,0.00,Wunderground v.1.15,2013-06-01 18:22:00,
2013-06-01 14:23:00,78.1,63.1,30.17,SSE,165,12.0,12.0,60,0.00,,,0.00,Wunderground v.1.15,2013-06-01 18:23:00,
2013-06-01 14:24:00,78.0,62.5,30.17,West,261,10.0,12.0,59,0.00,,,0.00,Wunderground v.1.15,2013-06-01 18:24:00,
2013-06-01 14:25:00,77.8,62.3,30.17,SW,235,10.0,12.0,59,0.00,,,0.00,Wunderground v.1.15,2013-06-01 18:25:00,
2013-06-01 14:28:00,76.8,61.9,30.16,SW,233,7.0,18.0,60,0.00,,,0.00,Wunderground v.1.15,2013-06-01 18:28:00,
2013-06-01 14:29:00,76.7,62.2,30.16,SSW,192,7.0,18.0,61,0.00,,,0.00,Wunderground v.1.15,2013-06-01 18:29:00,
2013-06-01 14:30:00,76.7,62.2,30.16,SW,220,6.0,6.0,61,0.00,,,0.00,Wunderground v.1.15,2013-06-01 18:30:00,
2013-06-01 14:33:00,76.8,61.9,30.16,WSW,242,4.0,10.0,60,0.00,,,0.00,Wunderground v.1.15,2013-06-01 18:33:00,
2013-06-01 14:34:00,76.9,62.9,30.16,SW,232,5.0,10.0,62,0.00,,,0.00,Wunderground v.1.15,2013-06-01 18:34:00,
2013-06-01 14:35:00,77.1,62.6,30.16,West,267,4.0,12.0,61,0.00,,,0.00,Wunderground v.1.15,2013-06-01 18:35:00,
2013-06-01 14:38:00,77.3,62.3,30.16,SSW,202,5.0,12.0,60,0.00,,,0.00,Wunderground v.1.15,2013-06-01 18:38:00,
2013-06-01 14:39:00,77.3,61.9,30.16,SW,230,9.0,12.0,59,0.00,,,0.00,Wunderground v.1.15,2013-06-01 18:39:00,
2013-06-01 14:40:00,77.3,61.9,30.16,NW,307,5.0,10.0,59,0.00,,,0.00,Wunderground v.1.15,2013-06-01 18:40:00,
2013-06-01 14:43:00,77.5,62.5,30.15,South,183,2.0,12.0,60,0.00,,,0.00,Wunderground v.1.15,2013-06-01 18:43:00,
2013-06-01 14:44:00,77.6,62.6,30.15,WSW,245,4.0,12.0,60,0.00,,,0.00,Wunderground v.1.15,2013-06-01 18:44:00,
2013-06-01 14:45:00,77.6,62.6,30.16,SW,227,7.0,12.0,60,0.00,,,0.00,Wunderground v.1.15,2013-06-01 18:45:00,
2013-06-01 14:46:00,77.6,62.6,30.16,SSW,201,4.0,12.0,60,0.00,,,0.00,Wunderground v.1.15,2013-06-01 18:46:00,
2013-06-01 14:48:00,77.9,62.4,30.15,WSW,250,6.0,12.0,59,0.00,,,0.00,Wunderground v.1.15,2013-06-01 18:48:00,
2013-06-01 14:49:00,77.9,62.4,30.15,South,171,2.0,12.0,59,0.00,,,0.00,Wunderground v.1.15,2013-06-01 18:49:00,
2013-06-01 14:50:00,77.9,62.9,30.15,SE,129,6.0,6.0,60,0.00,,,0.00,Wunderground v.1.15,2013-06-01 18:50:00,
2013-06-01 14:51:00,78.0,63.0,30.15,ESE,110,2.0,18.0,60,0.00,,,0.00,Wunderground v.1.15,2013-06-01 18:51:00,
2013-06-01 14:53:00,77.9,62.4,30.15,ESE,114,9.0,18.0,59,0.00,,,0.00,Wunderground v.1.15,2013-06-01 18:53:00,
2013-06-01 14:54:00,77.9,62.4,30.15,SSW,192,7.0,18.0,59,0.00,,,0.00,Wunderground v.1.15,2013-06-01 18:54:00,
2013-06-01 14:55:00,77.9,62.4,30.15,SSW,205,4.0,18.0,59,0.00,,,0.00,Wunderground v.1.15,2013-06-01 18:55:00,
2013-06-01 14:57:00,77.7,62.7,30.15,SW,227,1.0,18.0,60,0.00,,,0.00,Wunderground v.1.15,2013-06-01 18:57:00,
2013-06-01 14:59:00,77.6,62.1,30.15,South,189,4.0,18.0,59,0.00,,,0.00,Wunderground v.1.15,2013-06-01 18:59:00,
2013-06-01 15:00:00,77.7,62.2,30.15,West,269,4.0,6.0,59,0.00,,,0.00,Wunderground v.1.15,2013-06-01 19:00:00,
2013-06-01 15:01:00,77.7,62.2,30.15,WSW,248,3.0,11.0,59,0.00,,,0.00,Wunderground v.1.15,2013-06-01 19:01:00,
2013-06-01 15:03:00,78.0,62.5,30.15,South,186,3.0,11.0,59,0.00,,,0.00,Wunderground v.1.15,2013-06-01 19:03:00,
2013-06-01 15:04:00,78.1,62.6,30.15,West,275,4.0,11.0,59,0.00,,,0.00,Wunderground v.1.15,2013-06-01 19:04:00,
2013-06-01 15:05:00,78.1,62.6,30.15,West,259,3.0,11.0,59,0.00,,,0.00,Wunderground v.1.15,2013-06-01 19:05:00,
2013-06-01 15:06:00,78.3,62.8,30.15,South,186,6.0,15.0,59,0.00,,,0.00,Wunderground v.1.15,2013-06-01 19:06:00,
2013-06-01 15:08:00,78.5,63.0,30.15,SSE,168,6.0,15.0,59,0.00,,,0.00,Wunderground v.1.15,2013-06-01 19:08:00,
2013-06-01 15:09:00,78.6,62.1,30.15,SW,220,4.0,15.0,57,0.00,,,0.00,Wunderground v.1.15,2013-06-01 19:09:00,
2013-06-01 15:10:00,78.6,62.1,30.15,South,170,4.0,6.0,57,0.00,,,0.00,Wunderground v.1.15,2013-06-01 19:10:00,
2013-06-01 15:11:00,78.6,61.6,30.15,SSE,168,6.0,7.0,56,0.00,,,0.00,Wunderground v.1.15,2013-06-01 19:11:00,
2013-06-01 15:14:00,78.3,61.8,30.15,South,178,7.0,11.0,57,0.00,,,0.00,Wunderground v.1.15,2013-06-01 19:14:00,
2013-06-01 15:15:00,78.3,62.3,30.15,South,188,7.0,11.0,58,0.00,,,0.00,Wunderground v.1.15,2013-06-01 19:15:00,
2013-06-01 15:16:00,78.5,61.5,30.15,SSE,163,8.0,11.0,56,0.00,,,0.00,Wunderground v.1.15,2013-06-01 19:16:00,
2013-06-01 15:17:00,78.5,62.0,30.14,SE,136,4.0,11.0,57,0.00,,,0.00,Wunderground v.1.15,2013-06-01 19:17:00,
2013-06-01 15:19:00,78.6,62.1,30.14,South,186,4.0,11.0,57,0.00,,,0.00,Wunderground v.1.15,2013-06-01 19:19:00,
2013-06-01 15:20:00,78.6,61.6,30.14,South,191,5.0,10.0,56,0.00,,,0.00,Wunderground v.1.15,2013-06-01 19:20:00,
2013-06-01 15:22:00,78.6,61.6,30.14,South,189,8.0,11.0,56,0.00,,,0.00,Wunderground v.1.15,2013-06-01 19:22:00,
2013-06-01 15:23:00,78.6,61.1,30.14,SSW,205,6.0,11.0,55,0.00,,,0.00,Wunderground v.1.15,2013-06-01 19:23:00,
2013-06-01 15:25:00,78.6,61.6,30.14,West,264,1.0,11.0,56,0.00,,,0.00,Wunderground v.1.15,2013-06-01 19:25:00,
2013-06-01 15:26:00,78.6,60.6,30.14,SSW,195,3.0,11.0,54,0.00,,,0.00,Wunderground v.1.15,2013-06-01 19:26:00,
2013-06-01 15:27:00,78.6,60.6,30.14,SSW,209,7.0,11.0,54,0.00,,,0.00,Wunderground v.1.15,2013-06-01 19:27:00,
2013-06-01 15:28:00,78.6,61.1,30.14,WSW,248,3.0,11.0,55,0.00,,,0.00,Wunderground v.1.15,2013-06-01 19:28:00,
2013-06-01 15:30:00,78.7,60.7,30.14,SW,221,7.0,7.0,54,0.00,,,0.00,Wunderground v.1.15,2013-06-01 19:30:00,
2013-06-01 15:31:00,78.7,60.7,30.14,South,169,5.0,9.0,54,0.00,,,0.00,Wunderground v.1.15,2013-06-01 19:31:00,
2013-06-01 15:32:00,78.8,60.2,30.14,West,271,3.0,9.0,53,0.00,,,0.00,Wunderground v.1.15,2013-06-01 19:32:00,
2013-06-01 15:34:00,78.8,60.7,30.14,SW,221,5.0,9.0,54,0.00,,,0.00,Wunderground v.1.15,2013-06-01 19:34:00,
2013-06-01 15:35:00,78.8,59.7,30.14,West,273,2.0,10.0,52,0.00,,,0.00,Wunderground v.1.15,2013-06-01 19:35:00,
2013-06-01 15:36:00,78.7,60.1,30.14,South,179,8.0,10.0,53,0.00,,,0.00,Wunderground v.1.15,2013-06-01 19:36:00,
2013-06-01 15:37:00,78.7,59.6,30.14,SE,142,5.0,10.0,52,0.00,,,0.00,Wunderground v.1.15,2013-06-01 19:37:00,
2013-06-01 15:39:00,78.7,59.6,30.15,West,271,4.0,11.0,52,0.00,,,0.00,Wunderground v.1.15,2013-06-01 19:39:00,
2013-06-01 15:41:00,78.7,59.6,30.14,West,266,3.0,6.0,52,0.00,,,0.00,Wunderground v.1.15,2013-06-01 19:41:00,
2013-06-01 15:42:00,78.7,59.6,30.14,WSW,248,5.0,12.0,52,0.00,,,0.00,Wunderground v.1.15,2013-06-01 19:42:00,
2013-06-01 15:44:00,78.7,59.6,30.14,SSE,156,5.0,12.0,52,0.00,,,0.00,Wunderground v.1.15,2013-06-01 19:44:00,
2013-06-01 15:46:00,78.7,59.6,30.14,SW,221,10.0,12.0,52,0.00,,,0.00,Wunderground v.1.15,2013-06-01 19:46:00,
2013-06-01 15:47:00,78.8,60.2,30.14,SE,143,3.0,12.0,53,0.00,,,0.00,Wunderground v.1.15,2013-06-01 19:47:00,
2013-06-01 15:50:00,78.9,60.3,30.14,SW,228,5.0,5.0,53,0.00,,,0.00,Wunderground v.1.15,2013-06-01 19:50:00,
2013-06-01 15:51:00,78.9,60.3,30.14,South,188,6.0,12.0,53,0.00,,,0.00,Wunderground v.1.15,2013-06-01 19:51:00,
2013-06-01 15:53:00,79.0,61.5,30.14,South,169,5.0,15.0,55,0.00,,,0.00,Wunderground v.1.15,2013-06-01 19:53:00,
2013-06-01 15:55:00,79.0,60.4,30.14,South,178,8.0,16.0,53,0.00,,,0.00,Wunderground v.1.15,2013-06-01 19:55:00,
2013-06-01 15:56:00,79.0,60.9,30.14,South,180,5.0,16.0,54,0.00,,,0.00,Wunderground v.1.15,2013-06-01 19:56:00,
2013-06-01 15:57:00,79.0,60.4,30.14,South,174,8.0,16.0,53,0.00,,,0.00,Wunderground v.1.15,2013-06-01 19:57:00,
2013-06-01 15:58:00,79.0,59.9,30.14,South,178,3.0,16.0,52,0.00,,,0.00,Wunderground v.1.15,2013-06-01 19:58:00,
2013-06-01 16:00:00,79.0,59.9,30.14,South,184,9.0,9.0,52,0.00,,,0.00,Wunderground v.1.15,2013-06-01 20:00:00,
2013-06-01 16:01:00,79.0,59.9,30.14,SSW,206,8.0,12.0,52,0.00,,,0.00,Wunderground v.1.15,2013-06-01 20:01:00,
2013-06-01 16:02:00,78.9,60.3,30.14,SSE,160,9.0,12.0,53,0.00,,,0.00,Wunderground v.1.15,2013-06-01 20:02:00,
2013-06-01 16:03:00,79.0,59.9,30.14,South,177,11.0,17.0,52,0.00,,,0.00,Wunderground v.1.15,2013-06-01 20:03:00,
2013-06-01 16:05:00,79.2,60.1,30.14,SSE,162,9.0,17.0,52,0.00,,,0.00,Wunderground v.1.15,2013-06-01 20:05:00,
2013-06-01 16:07:00,79.2,60.6,30.14,South,174,6.0,17.0,53,0.00,,,0.00,Wunderground v.1.15,2013-06-01 20:07:00,
2013-06-01 16:09:00,79.2,60.1,30.14,SE,126,14.0,17.0,52,0.00,,,0.00,Wunderground v.1.15,2013-06-01 20:09:00,
2013-06-01 16:11:00,79.1,60.5,30.14,South,189,10.0,10.0,53,0.00,,,0.00,Wunderground v.1.15,2013-06-01 20:11:00,
2013-06-01 16:12:00,79.1,60.0,30.14,South,171,13.0,13.0,52,0.00,,,0.00,Wunderground v.1.15,2013-06-01 20:12:00,
2013-06-01 16:13:00,79.1,60.0,30.14,SSE,163,11.0,13.0,52,0.00,,,0.00,Wunderground v.1.15,2013-06-01 20:13:00,
2013-06-01 16:14:00,79.1,60.5,30.14,South,171,4.0,13.0,53,0.00,,,0.00,Wunderground v.1.15,2013-06-01 20:14:00,
2013-06-01 16:16:00,79.1,60.0,30.13,West,271,3.0,13.0,52,0.00,,,0.00,Wunderground v.1.15,2013-06-01 20:16:00,
2013-06-01 16:17:00,79.1,61.0,30.14,South,181,9.0,13.0,54,0.00,,,0.00,Wunderground v.1.15,2013-06-01 20:17:00,
2013-06-01 16:18:00,79.1,60.0,30.14,SW,229,7.0,13.0,52,0.00,,,0.00,Wunderground v.1.15,2013-06-01 20:18:00,
2013-06-01 16:19:00,79.2,59.5,30.13,West,268,6.0,14.0,51,0.00,,,0.00,Wunderground v.1.15,2013-06-01 20:19:00,
2013-06-01 16:22:00,79.1,58.3,30.13,SSW,211,4.0,9.0,49,0.00,,,0.00,Wunderground v.1.15,2013-06-01 20:22:00,
2013-06-01 16:23:00,79.1,58.9,30.13,SE,138,9.0,12.0,50,0.00,,,0.00,Wunderground v.1.15,2013-06-01 20:23:00,
2013-06-01 16:24:00,79.1,59.4,30.13,South,171,19.0,19.0,51,0.00,,,0.00,Wunderground v.1.15,2013-06-01 20:24:00,
2013-06-01 16:27:00,78.9,58.7,30.13,SE,136,6.0,19.0,50,0.00,,,0.00,Wunderground v.1.15,2013-06-01 20:27:00,
2013-06-01 16:28:00,78.9,58.7,30.13,SSE,166,10.0,19.0,50,0.00,,,0.00,Wunderground v.1.15,2013-06-01 20:28:00,
2013-06-01 16:29:00,78.9,58.7,30.13,SE,140,10.0,19.0,50,0.00,,,0.00,Wunderground v.1.15,2013-06-01 20:29:00,
2013-06-01 16:32:00,78.9,59.2,30.13,South,188,4.0,15.0,51,0.00,,,0.00,Wunderground v.1.15,2013-06-01 20:32:00,
2013-06-01 16:33:00,78.9,59.2,30.13,SSE,163,3.0,15.0,51,0.00,,,0.00,Wunderground v.1.15,2013-06-01 20:33:00,
2013-06-01 16:34:00,78.9,59.2,30.13,SSW,212,9.0,15.0,51,0.00,,,0.00,Wunderground v.1.15,2013-06-01 20:34:00,
2013-06-01 16:38:00,79.0,59.3,30.13,South,180,8.0,15.0,51,0.00,,,0.00,Wunderground v.1.15,2013-06-01 20:38:00,
2013-06-01 16:39:00,79.0,59.9,30.13,SW,221,7.0,15.0,52,0.00,,,0.00,Wunderground v.1.15,2013-06-01 20:39:00,
2013-06-01 16:43:00,79.1,60.5,30.13,South,171,13.0,14.0,53,0.00,,,0.00,Wunderground v.1.15,2013-06-01 20:43:00,
2013-06-01 16:44:00,79.1,60.5,30.13,South,173,7.0,14.0,53,0.00,,,0.00,Wunderground v.1.15,2013-06-01 20:44:00,
2013-06-01 16:45:00,79.1,60.5,30.13,South,188,7.0,14.0,53,0.00,,,0.00,Wunderground v.1.15,2013-06-01 20:45:00,
2013-06-01 16:48:00,79.2,59.5,30.12,SW,217,2.0,14.0,51,0.00,,,0.00,Wunderground v.1.15,2013-06-01 20:48:00,
2013-06-01 16:50:00,79.1,60.0,30.12,SSE,148,7.0,7.0,52,0.00,,,0.00,Wunderground v.1.15,2013-06-01 20:50:00,
2013-06-01 16:53:00,79.1,59.4,30.13,SSE,153,6.0,8.0,51,0.00,,,0.00,Wunderground v.1.15,2013-06-01 20:53:00,
2013-06-01 16:55:00,79.1,59.4,30.13,SE,134,9.0,9.0,51,0.00,,,0.00,Wunderground v.1.15,2013-06-01 20:55:00,
2013-06-01 16:58:00,79.1,58.9,30.13,South,181,10.0,15.0,50,0.00,,,0.00,Wunderground v.1.15,2013-06-01 20:58:00,
2013-06-01 16:59:00,79.1,58.9,30.13,South,188,5.0,15.0,50,0.00,,,0.00,Wunderground v.1.15,2013-06-01 20:59:00,
2013-06-01 17:00:00,79.0,58.8,30.13,West,260,5.0,6.0,50,0.00,,,0.00,Wunderground v.1.15,2013-06-01 21:00:00,
2013-06-01 17:01:00,78.9,58.1,30.13,South,184,6.0,11.0,49,0.00,,,0.00,Wunderground v.1.15,2013-06-01 21:01:00,
2013-06-01 17:03:00,78.7,58.5,30.13,SE,134,2.0,11.0,50,0.00,,,0.00,Wunderground v.1.15,2013-06-01 21:03:00,
2013-06-01 17:04:00,78.6,58.4,30.13,West,277,5.0,11.0,50,0.00,,,0.00,Wunderground v.1.15,2013-06-01 21:04:00,
2013-06-01 17:06:00,78.5,58.3,30.13,WNW,290,2.0,11.0,50,0.00,,,0.00,Wunderground v.1.15,2013-06-01 21:06:00,
2013-06-01 17:08:00,78.4,58.8,30.13,South,176,4.0,12.0,51,0.00,,,0.00,Wunderground v.1.15,2013-06-01 21:08:00,
2013-06-01 17:09:00,78.4,58.8,30.13,ESE,114,12.0,12.0,51,0.00,,,0.00,Wunderground v.1.15,2013-06-01 21:09:00,
2013-06-01 17:11:00,78.2,58.6,30.13,South,170,5.0,8.0,51,0.00,,,0.00,Wunderground v.1.15,2013-06-01 21:11:00,
2013-06-01 17:13:00,78.3,58.7,30.12,South,175,2.0,10.0,51,0.00,,,0.00,Wunderground v.1.15,2013-06-01 21:13:00,
2013-06-01 17:14:00,78.3,58.7,30.13,West,271,5.0,10.0,51,0.00,,,0.00,Wunderground v.1.15,2013-06-01 21:14:00,
2013-06-01 17:16:00,78.3,58.7,30.13,South,186,9.0,14.0,51,0.00,,,0.00,Wunderground v.1.15,2013-06-01 21:16:00,
2013-06-01 17:17:00,78.3,58.1,30.13,South,178,7.0,14.0,50,0.00,,,0.00,Wunderground v.1.15,2013-06-01 21:17:00,
2013-06-01 17:19:00,78.4,58.8,30.13,South,170,2.0,14.0,51,0.00,,,0.00,Wunderground v.1.15,2013-06-01 21:19:00,
2013-06-01 17:22:00,78.3,57.6,30.12,SW,223,4.0,8.0,49,0.00,,,0.00,Wunderground v.1.15,2013-06-01 21:22:00,
2013-06-01 17:24:00,78.1,56.8,30.13,SSE,166,6.0,13.0,48,0.00,,,0.00,Wunderground v.1.15,2013-06-01 21:24:00,
2013-06-01 17:25:00,78.1,56.8,30.13,WNW,303,1.0,13.0,48,0.00,,,0.00,Wunderground v.1.15,2013-06-01 21:25:00,
2013-06-01 17:27:00,78.0,57.3,30.13,SSW,202,4.0,13.0,49,0.00,,,0.00,Wunderground v.1.15,2013-06-01 21:27:00,
2013-06-01 17:29:00,78.0,57.9,30.13,South,174,6.0,13.0,50,0.00,,,0.00,Wunderground v.1.15,2013-06-01 21:29:00,
2013-06-01 17:30:00,78.0,57.9,30.13,SSW,202,7.0,7.0,50,0.00,,,0.00,Wunderground v.1.15,2013-06-01 21:30:00,
2013-06-01 17:32:00,78.1,58.5,30.13,SSW,198,9.0,11.0,51,0.00,,,0.00,Wunderground v.1.15,2013-06-01 21:32:00,
2013-06-01 17:33:00,78.1,58.5,30.13,SSW,192,5.0,11.0,51,0.00,,,0.00,Wunderground v.1.15,2013-06-01 21:33:00,
2013-06-01 17:34:00,78.1,58.5,30.13,SSW,208,4.0,11.0,51,0.00,,,0.00,Wunderground v.1.15,2013-06-01 21:34:00,
2013-06-01 17:35:00,78.1,58.5,30.13,South,186,7.0,11.0,51,0.00,,,0.00,Wunderground v.1.15,2013-06-01 21:35:00,
2013-06-01 17:37:00,78.0,58.4,30.13,SW,221,10.0,15.0,51,0.00,,,0.00,Wunderground v.1.15,2013-06-01 21:37:00,
2013-06-01 17:38:00,78.0,58.4,30.13,SSW,202,7.0,15.0,51,0.00,,,0.00,Wunderground v.1.15,2013-06-01 21:38:00,
2013-06-01 17:40:00,77.9,58.3,30.13,SSW,209,14.0,14.0,51,0.00,,,0.00,Wunderground v.1.15,2013-06-01 21:40:00,
2013-06-01 17:43:00,77.7,58.7,30.12,NW,304,4.0,17.0,52,0.00,,,0.00,Wunderground v.1.15,2013-06-01 21:43:00,
2013-06-01 17:44:00,77.7,58.7,30.12,South,180,16.0,17.0,52,0.00,,,0.00,Wunderground v.1.15,2013-06-01 21:44:00,
2013-06-01 17:45:00,77.7,59.2,30.12,SSW,202,9.0,18.0,53,0.00,,,0.00,Wunderground v.1.15,2013-06-01 21:45:00,
2013-06-01 17:48:00,77.7,59.2,30.12,SSW,200,7.0,18.0,53,0.00,,,0.00,Wunderground v.1.15,2013-06-01 21:48:00,
2013-06-01 17:49:00,77.6,59.1,30.12,SSW,200,4.0,18.0,53,0.00,,,0.00,Wunderground v.1.15,2013-06-01 21:49:00,
2013-06-01 17:50:00,77.5,59.0,30.12,SSE,163,5.0,14.0,53,0.00,,,0.00,Wunderground v.1.15,2013-06-01 21:50:00,
2013-06-01 17:53:00,77.5,59.5,30.12,North,355,5.0,14.0,54,0.00,,,0.00,Wunderground v.1.15,2013-06-01 21:53:00,
2013-06-01 17:54:00,77.5,59.5,30.12,SSE,148,5.0,14.0,54,0.00,,,0.00,Wunderground v.1.15,2013-06-01 21:54:00,
2013-06-01 17:56:00,77.5,60.1,30.12,SSW,198,16.0,16.0,55,0.00,,,0.00,Wunderground v.1.15,2013-06-01 21:56:00,
2013-06-01 17:58:00,77.5,59.0,30.12,SSE,147,8.0,16.0,53,0.00,,,0.00,Wunderground v.1.15,2013-06-01 21:58:00,
2013-06-01 17:59:00,77.5,59.0,30.12,ESE,121,7.0,16.0,53,0.00,,,0.00,Wunderground v.1.15,2013-06-01 21:59:00,
2013-06-01 18:01:00,77.3,58.8,30.12,SE,144,5.0,7.0,53,0.00,,,0.00,Wunderground v.1.15,2013-06-01 22:01:00,
2013-06-01 18:03:00,77.2,59.3,30.12,South,169,3.0,9.0,54,0.00,,,0.00,Wunderground v.1.15,2013-06-01 22:03:00,
2013-06-01 18:04:00,77.2,59.8,30.11,South,187,14.0,15.0,55,0.00,,,0.00,Wunderground v.1.15,2013-06-01 22:04:00,
2013-06-01 18:05:00,77.2,59.3,30.11,SSW,209,8.0,15.0,54,0.00,,,0.00,Wunderground v.1.15,2013-06-01 22:05:00,
2013-06-01 18:06:00,77.3,59.9,30.12,SSW,202,8.0,15.0,55,0.00,,,0.00,Wunderground v.1.15,2013-06-01 22:06:00,
2013-06-01 18:08:00,77.3,59.9,30.12,SSE,158,5.0,15.0,55,0.00,,,0.00,Wunderground v.1.15,2013-06-01 22:08:00,
2013-06-01 18:09:00,77.2,59.8,30.12,South,186,4.0,15.0,55,0.00,,,0.00,Wunderground v.1.15,2013-06-01 22:09:00,
2013-06-01 18:10:00,77.2,59.8,30.12,West,277,4.0,7.0,55,0.00,,,0.00,Wunderground v.1.15,2013-06-01 22:10:00,
2013-06-01 18:11:00,77.2,59.8,30.12,SSW,197,6.0,7.0,55,0.00,,,0.00,Wunderground v.1.15,2013-06-01 22:11:00,
2013-06-01 18:13:00,76.9,59.0,30.12,South,179,6.0,18.0,54,0.00,,,0.00,Wunderground v.1.15,2013-06-01 22:13:00,
2013-06-01 18:14:00,76.9,59.0,30.12,South,173,6.0,18.0,54,0.00,,,0.00,Wunderground v.1.15,2013-06-01 22:14:00,
2013-06-01 18:15:00,76.8,59.4,30.12,South,175,15.0,18.0,55,0.00,,,0.00,Wunderground v.1.15,2013-06-01 22:15:00,
2013-06-01 18:17:00,76.7,59.3,30.12,South,189,7.0,18.0,55,0.00,,,0.00,Wunderground v.1.15,2013-06-01 22:17:00,
2013-06-01 18:18:00,76.6,58.7,30.12,SSW,204,9.0,18.0,54,0.00,,,0.00,Wunderground v.1.15,2013-06-01 22:18:00,
2013-06-01 18:19:00,76.6,59.2,30.12,South,184,3.0,18.0,55,0.00,,,0.00,Wunderground v.1.15,2013-06-01 22:19:00,
2013-06-01 18:21:00,76.5,59.1,30.12,SSE,157,8.0,8.0,55,0.00,,,0.00,Wunderground v.1.15,2013-06-01 22:21:00,
2013-06-01 18:22:00,76.5,59.6,30.12,SE,146,6.0,9.0,56,0.00,,,0.00,Wunderground v.1.15,2013-06-01 22:22:00,
2013-06-01 18:24:00,76.4,59.5,30.12,SSW,210,5.0,9.0,56,0.00,,,0.00,Wunderground v.1.15,2013-06-01 22:24:00,
2013-06-01 18:25:00,76.4,60.0,30.12,SSW,194,5.0,9.0,57,0.00,,,0.00,Wunderground v.1.15,2013-06-01 22:25:00,
2013-06-01 18:26:00,76.4,60.0,30.12,South,184,3.0,9.0,57,0.00,,,0.00,Wunderground v.1.15,2013-06-01 22:26:00,
2013-06-01 18:27:00,76.5,60.6,30.12,WNW,283,3.0,9.0,58,0.00,,,0.00,Wunderground v.1.15,2013-06-01 22:27:00,
2013-06-01 18:29:00,76.5,60.1,30.12,SSE,159,5.0,9.0,57,0.00,,,0.00,Wunderground v.1.15,2013-06-01 22:29:00,
2013-06-01 18:30:00,76.5,60.1,30.12,South,182,11.0,13.0,57,0.00,,,0.00,Wunderground v.1.15,2013-06-01 22:30:00,
2013-06-01 18:31:00,76.5,60.1,30.12,SSE,159,4.0,13.0,57,0.00,,,0.00,Wunderground v.1.15,2013-06-01 22:31:00,
2013-06-01 18:33:00,76.6,60.2,30.12,South,178,3.0,13.0,57,0.00,,,0.00,Wunderground v.1.15,2013-06-01 22:33:00,
2013-06-01 18:34:00,76.5,60.1,30.12,SSW,198,6.0,13.0,57,0.00,,,0.00,Wunderground v.1.15,2013-06-01 22:34:00,
2013-06-01 18:35:00,76.5,60.1,30.12,South,191,9.0,13.0,57,0.00,,,0.00,Wunderground v.1.15,2013-06-01 22:35:00,
2013-06-01 18:36:00,76.4,60.0,30.12,South,173,2.0,13.0,57,0.00,,,0.00,Wunderground v.1.15,2013-06-01 22:36:00,
2013-06-01 18:38:00,76.4,60.0,30.12,South,173,6.0,13.0,57,0.00,,,0.00,Wunderground v.1.15,2013-06-01 22:38:00,
2013-06-01 18:40:00,76.3,59.9,30.12,WSW,246,7.0,7.0,57,0.00,,,0.00,Wunderground v.1.15,2013-06-01 22:40:00,
2013-06-01 18:42:00,76.3,59.4,30.12,West,267,8.0,14.0,56,0.00,,,0.00,Wunderground v.1.15,2013-06-01 22:42:00,
2013-06-01 18:43:00,76.2,59.9,30.12,SW,226,4.0,14.0,57,0.00,,,0.00,Wunderground v.1.15,2013-06-01 22:43:00,
2013-06-01 18:45:00,76.2,59.9,30.12,SW,218,2.0,14.0,57,0.00,,,0.00,Wunderground v.1.15,2013-06-01 22:45:00,
2013-06-01 18:46:00,76.2,59.9,30.12,South,176,5.0,14.0,57,0.00,,,0.00,Wunderground v.1.15,2013-06-01 22:46:00,
2013-06-01 18:47:00,76.1,60.2,30.12,SSE,158,2.0,14.0,58,0.00,,,0.00,Wunderground v.1.15,2013-06-01 22:47:00,
2013-06-01 18:49:00,76.0,59.7,30.12,SW,231,2.0,14.0,57,0.00,,,0.00,Wunderground v.1.15,2013-06-01 22:49:00,
2013-06-01 18:50:00,75.9,59.6,30.12,WNW,286,2.0,7.0,57,0.00,,,0.00,Wunderground v.1.15,2013-06-01 22:50:00,
2013-06-01 18:51:00,75.9,59.6,30.12,SW,229,13.0,13.0,57,0.00,,,0.00,Wunderground v.1.15,2013-06-01 22:51:00,
2013-06-01 18:52:00,75.8,59.5,30.12,South,178,7.0,13.0,57,0.00,,,0.00,Wunderground v.1.15,2013-06-01 22:52:00,
2013-06-01 18:54:00,75.8,60.0,30.12,SW,214,8.0,13.0,58,0.00,,,0.00,Wunderground v.1.15,2013-06-01 22:54:00,
2013-06-01 18:55:00,75.7,59.4,30.13,SW,236,3.0,13.0,57,0.00,,,0.00,Wunderground v.1.15,2013-06-01 22:55:00,
2013-06-01 18:56:00,75.7,59.9,30.12,SW,220,6.0,13.0,58,0.00,,,0.00,Wunderground v.1.15,2013-06-01 22:56:00,
2013-06-01 18:58:00,75.7,60.4,30.12,SSW,209,2.0,13.0,59,0.00,,,0.00,Wunderground v.1.15,2013-06-01 22:58:00,
2013-06-01 18:59:00,75.7,60.4,30.12,South,173,3.0,13.0,59,0.00,,,0.00,Wunderground v.1.15,2013-06-01 22:59:00,
2013-06-01 19:01:00,75.7,59.9,30.13,SW,223,7.0,8.0,58,0.00,,,0.00,Wunderground v.1.15,2013-06-01 23:01:00,
2013-06-01 19:03:00,75.5,60.2,30.12,WSW,240,9.0,9.0,59,0.00,,,0.00,Wunderground v.1.15,2013-06-01 23:03:00,
2013-06-01 19:04:00,75.4,60.1,30.13,WSW,246,6.0,12.0,59,0.00,,,0.00,Wunderground v.1.15,2013-06-01 23:04:00,
2013-06-01 19:07:00,75.3,60.0,30.13,SSW,206,4.0,12.0,59,0.00,,,0.00,Wunderground v.1.15,2013-06-01 23:07:00,
2013-06-01 19:09:00,75.1,60.3,30.13,SW,219,7.0,12.0,60,0.00,,,0.00,Wunderground v.1.15,2013-06-01 23:09:00,
2013-06-01 19:12:00,74.9,60.1,30.12,SW,214,3.0,13.0,60,0.00,,,0.00,Wunderground v.1.15,2013-06-01 23:12:00,
2013-06-01 19:14:00,74.8,60.4,30.12,WSW,241,8.0,13.0,61,0.00,,,0.00,Wunderground v.1.15,2013-06-01 23:14:00,
2013-06-01 19:17:00,74.7,60.4,30.12,South,186,7.0,13.0,61,0.00,,,0.00,Wunderground v.1.15,2013-06-01 23:17:00,
2013-06-01 19:18:00,74.7,60.4,30.12,South,184,5.0,13.0,61,0.00,,,0.00,Wunderground v.1.15,2013-06-01 23:18:00,
2013-06-01 19:19:00,74.6,60.3,30.12,SE,144,5.0,13.0,61,0.00,,,0.00,Wunderground v.1.15,2013-06-01 23:19:00,
2013-06-01 19:23:00,74.5,60.2,30.12,SSW,198,10.0,10.0,61,0.00,,,0.00,Wunderground v.1.15,2013-06-01 23:23:00,
2013-06-01 19:24:00,74.4,60.1,30.12,South,183,7.0,10.0,61,0.00,,,0.00,Wunderground v.1.15,2013-06-01 23:24:00,
2013-06-01 19:25:00,74.4,60.1,30.12,South,187,2.0,10.0,61,0.00,,,0.00,Wunderground v.1.15,2013-06-01 23:25:00,
2013-06-01 19:28:00,74.3,60.0,30.12,WSW,240,4.0,12.0,61,0.00,,,0.00,Wunderground v.1.15,2013-06-01 23:28:00,
2013-06-01 19:29:00,74.3,60.0,30.12,SE,133,4.0,12.0,61,0.00,,,0.00,Wunderground v.1.15,2013-06-01 23:29:00,
2013-06-01 19:30:00,74.3,60.0,30.12,SW,221,5.0,7.0,61,0.00,,,0.00,Wunderground v.1.15,2013-06-01 23:30:00,
2013-06-01 19:33:00,74.1,59.8,30.12,SSW,210,5.0,10.0,61,0.00,,,0.00,Wunderground v.1.15,2013-06-01 23:33:00,
2013-06-01 19:35:00,74.0,59.7,30.12,SSE,162,6.0,10.0,61,0.00,,,0.00,Wunderground v.1.15,2013-06-01 23:35:00,
2013-06-01 19:38:00,73.9,60.1,30.12,SSE,157,8.0,10.0,62,0.00,,,0.00,Wunderground v.1.15,2013-06-01 23:38:00,
2013-06-01 19:39:00,73.9,60.1,30.12,SW,223,5.0,10.0,62,0.00,,,0.00,Wunderground v.1.15,2013-06-01 23:39:00,
2013-06-01 19:40:00,73.8,60.0,30.12,SW,236,9.0,12.0,62,0.00,,,0.00,Wunderground v.1.15,2013-06-01 23:40:00,
2013-06-01 19:41:00,73.8,60.0,30.12,SSW,208,9.0,12.0,62,0.00,,,0.00,Wunderground v.1.15,2013-06-01 23:41:00,
2013-06-01 19:44:00,73.7,59.4,30.12,SSE,164,8.0,18.0,61,0.00,,,0.00,Wunderground v.1.15,2013-06-01 23:44:00,
2013-06-01 19:45:00,73.7,59.9,30.12,SSE,148,6.0,18.0,62,0.00,,,0.00,Wunderground v.1.15,2013-06-01 23:45:00,
2013-06-01 19:46:00,73.6,59.8,30.12,WSW,242,7.0,18.0,62,0.00,,,0.00,Wunderground v.1.15,2013-06-01 23:46:00,
2013-06-01 19:49:00,73.4,59.6,30.12,SSW,199,7.0,18.0,62,0.00,,,0.00,Wunderground v.1.15,2013-06-01 23:49:00,
2013-06-01 19:50:00,73.4,59.6,30.12,SW,229,13.0,13.0,62,0.00,,,0.00,Wunderground v.1.15,2013-06-01 23:50:00,
2013-06-01 19:51:00,73.3,59.5,30.12,SSW,199,11.0,14.0,62,0.00,,,0.00,Wunderground v.1.15,2013-06-01 23:51:00,
2013-06-01 19:55:00,73.1,59.3,30.12,South,169,6.0,14.0,62,0.00,,,0.00,Wunderground v.1.15,2013-06-01 23:55:00,
2013-06-01 19:56:00,73.1,59.8,30.12,WSW,255,5.0,14.0,63,0.00,,,0.00,Wunderground v.1.15,2013-06-01 23:56:00,
2013-06-01 19:57:00,73.0,59.7,30.12,SSW,209,1.0,14.0,63,0.00,,,0.00,Wunderground v.1.15,2013-06-01 23:57:00,
2013-06-01 20:00:00,72.9,59.6,30.12,SW,218,5.0,7.0,63,0.00,,,0.00,Wunderground v.1.15,2013-06-02 00:00:00,
2013-06-01 20:02:00,72.8,59.5,30.12,SW,217,4.0,9.0,63,0.00,,,0.00,Wunderground v.1.15,2013-06-02 00:02:00,
2013-06-01 20:05:00,72.6,59.3,30.12,SSW,210,8.0,9.0,63,0.00,,,0.00,Wunderground v.1.15,2013-06-02 00:05:00,
2013-06-01 20:07:00,72.6,59.3,30.11,South,179,4.0,9.0,63,0.00,,,0.00,Wunderground v.1.15,2013-06-02 00:07:00,
2013-06-01 20:11:00,72.4,59.5,30.11,West,265,3.0,7.0,64,0.00,,,0.00,Wunderground v.1.15,2013-06-02 00:11:00,
2013-06-01 20:12:00,72.3,59.4,30.12,South,186,8.0,8.0,64,0.00,,,0.00,Wunderground v.1.15,2013-06-02 00:12:00,
2013-06-01 20:13:00,72.3,59.4,30.12,SW,229,2.0,8.0,64,0.00,,,0.00,Wunderground v.1.15,2013-06-02 00:13:00,
2013-06-01 20:16:00,72.1,59.2,30.12,SE,125,1.0,10.0,64,0.00,,,0.00,Wunderground v.1.15,2013-06-02 00:16:00,
2013-06-01 20:17:00,72.1,59.7,30.12,WSW,255,6.0,10.0,65,0.00,,,0.00,Wunderground v.1.15,2013-06-02 00:17:00,
2013-06-01 20:18:00,72.1,59.7,30.12,South,190,4.0,10.0,65,0.00,,,0.00,Wunderground v.1.15,2013-06-02 00:18:00,
2013-06-01 20:22:00,72.0,59.6,30.11,South,169,2.0,7.0,65,0.00,,,0.00,Wunderground v.1.15,2013-06-02 00:22:00,
2013-06-01 20:23:00,72.0,59.6,30.11,SSW,207,4.0,7.0,65,0.00,,,0.00,Wunderground v.1.15,2013-06-02 00:23:00,
2013-06-01 20:27:00,71.8,59.8,30.11,SSE,155,1.0,7.0,66,0.00,,,0.00,Wunderground v.1.15,2013-06-02 00:27:00,
2013-06-01 20:28:00,71.8,59.4,30.11,South,178,1.0,7.0,65,0.00,,,0.00,Wunderground v.1.15,2013-06-02 00:28:00,
2013-06-01 20:32:00,71.6,59.6,30.12,SSW,193,2.0,5.0,66,0.00,,,0.00,Wunderground v.1.15,2013-06-02 00:32:00,
2013-06-01 20:33:00,71.6,59.6,30.12,SSE,156,3.0,6.0,66,0.00,,,0.00,Wunderground v.1.15,2013-06-02 00:33:00,
2013-06-01 20:34:00,71.5,59.5,30.12,SSW,202,4.0,6.0,66,0.00,,,0.00,Wunderground v.1.15,2013-06-02 00:34:00,
2013-06-01 20:37:00,71.5,59.5,30.12,SW,217,3.0,6.0,66,0.00,,,0.00,Wunderground v.1.15,2013-06-02 00:37:00,
2013-06-01 20:38:00,71.4,59.4,30.12,SSW,211,5.0,6.0,66,0.00,,,0.00,Wunderground v.1.15,2013-06-02 00:38:00,
2013-06-01 20:39:00,71.4,59.4,30.12,SSE,165,1.0,6.0,66,0.00,,,0.00,Wunderground v.1.15,2013-06-02 00:39:00,
2013-06-01 20:43:00,71.2,59.7,30.11,South,169,3.0,8.0,67,0.00,,,0.00,Wunderground v.1.15,2013-06-02 00:43:00,
2013-06-01 20:44:00,71.2,59.7,30.11,SSE,168,2.0,8.0,67,0.00,,,0.00,Wunderground v.1.15,2013-06-02 00:44:00,
2013-06-01 20:49:00,71.0,59.5,30.12,SSW,194,5.0,8.0,67,0.00,,,0.00,Wunderground v.1.15,2013-06-02 00:49:00,
2013-06-01 20:54:00,70.8,59.3,30.12,SSE,166,3.0,8.0,67,0.00,,,0.00,Wunderground v.1.15,2013-06-02 00:54:00,
2013-06-01 20:55:00,70.7,59.6,30.12,South,173,4.0,8.0,68,0.00,,,0.00,Wunderground v.1.15,2013-06-02 00:55:00,
2013-06-01 20:59:00,70.6,59.5,30.12,South,178,4.0,8.0,68,0.00,,,0.00,Wunderground v.1.15,2013-06-02 00:59:00,
2013-06-01 21:00:00,70.5,59.4,30.12,South,188,3.0,5.0,68,0.00,,,0.00,Wunderground v.1.15,2013-06-02 01:00:00,
2013-06-01 21:01:00,70.5,59.4,30.11,SSE,151,3.0,5.0,68,0.00,,,0.00,Wunderground v.1.15,2013-06-02 01:01:00,
2013-06-01 21:04:00,70.4,59.3,30.12,South,176,0.0,5.0,68,0.00,,,0.00,Wunderground v.1.15,2013-06-02 01:04:00,
2013-06-01 21:05:00,70.4,59.3,30.12,SW,220,1.0,5.0,68,0.00,,,0.00,Wunderground v.1.15,2013-06-02 01:05:00,
2013-06-01 21:06:00,70.3,59.6,30.12,South,172,3.0,5.0,69,0.00,,,0.00,Wunderground v.1.15,2013-06-02 01:06:00,
2013-06-01 21:09:00,70.4,59.7,30.12,South,187,3.0,5.0,69,0.00,,,0.00,Wunderground v.1.15,2013-06-02 01:09:00,
2013-06-01 21:10:00,70.3,59.6,30.12,SSW,202,7.0,7.0,69,0.00,,,0.00,Wunderground v.1.15,2013-06-02 01:10:00,
2013-06-01 21:12:00,70.3,59.6,30.12,SSE,149,4.0,7.0,69,0.00,,,0.00,Wunderground v.1.15,2013-06-02 01:12:00,
2013-06-01 21:14:00,70.2,59.6,30.12,SSW,207,3.0,9.0,69,0.00,,,0.00,Wunderground v.1.15,2013-06-02 01:14:00,
2013-06-01 21:15:00,70.2,59.6,30.12,South,184,1.0,9.0,69,0.00,,,0.00,Wunderground v.1.15,2013-06-02 01:15:00,
2013-06-01 21:16:00,70.2,59.6,30.12,South,178,1.0,9.0,69,0.00,,,0.00,Wunderground v.1.15,2013-06-02 01:16:00,
2013-06-01 21:18:00,70.2,59.6,30.12,South,179,2.0,9.0,69,0.00,,,0.00,Wunderground v.1.15,2013-06-02 01:18:00,
2013-06-01 21:20:00,70.1,59.5,30.12,SSW,199,4.0,7.0,69,0.00,,,0.00,Wunderground v.1.15,2013-06-02 01:20:00,
2013-06-01 21:21:00,70.1,59.5,30.12,SSW,200,2.0,7.0,69,0.00,,,0.00,Wunderground v.1.15,2013-06-02 01:21:00,
2013-06-01 21:23:00,70.1,59.5,30.12,South,175,3.0,7.0,69,0.00,,,0.00,Wunderground v.1.15,2013-06-02 01:23:00,
2013-06-01 21:26:00,70.0,59.4,30.12,SSW,196,14.0,14.0,69,0.00,,,0.00,Wunderground v.1.15,2013-06-02 01:26:00,
2013-06-01 21:28:00,70.0,59.8,30.11,South,186,9.0,14.0,70,0.00,,,0.00,Wunderground v.1.15,2013-06-02 01:28:00,
2013-06-01 21:31:00,69.9,59.7,30.11,South,170,2.0,6.0,70,0.00,,,0.00,Wunderground v.1.15,2013-06-02 01:31:00,
2013-06-01 21:32:00,69.9,59.7,30.11,SSE,166,2.0,6.0,70,0.00,,,0.00,Wunderground v.1.15,2013-06-02 01:32:00,
2013-06-01 21:33:00,69.9,59.7,30.12,South,191,1.0,6.0,70,0.00,,,0.00,Wunderground v.1.15,2013-06-02 01:33:00,
2013-06-01 21:36:00,69.8,59.6,30.11,South,182,5.0,6.0,70,0.00,,,0.00,Wunderground v.1.15,2013-06-02 01:36:00,
2013-06-01 21:37:00,69.8,59.6,30.12,South,180,5.0,8.0,70,0.00,,,0.00,Wunderground v.1.15,2013-06-02 01:37:00,
2013-06-01 21:38:00,69.8,59.6,30.12,South,180,5.0,8.0,70,0.00,,,0.00,Wunderground v.1.15,2013-06-02 01:38:00,
2013-06-01 21:41:00,69.7,59.5,30.12,SW,223,2.0,8.0,70,0.00,,,0.00,Wunderground v.1.15,2013-06-02 01:41:00,
2013-06-01 21:42:00,69.7,59.5,30.12,South,188,4.0,8.0,70,0.00,,,0.00,Wunderground v.1.15,2013-06-02 01:42:00,
2013-06-01 21:43:00,69.7,59.5,30.12,South,184,4.0,8.0,70,0.00,,,0.00,Wunderground v.1.15,2013-06-02 01:43:00,
2013-06-01 21:46:00,69.7,59.5,30.12,SSW,213,5.0,8.0,70,0.00,,,0.00,Wunderground v.1.15,2013-06-02 01:46:00,
2013-06-01 21:47:00,69.7,59.9,30.12,SW,223,1.0,8.0,71,0.00,,,0.00,Wunderground v.1.15,2013-06-02 01:47:00,
2013-06-01 21:48:00,69.7,59.9,30.12,South,175,4.0,8.0,71,0.00,,,0.00,Wunderground v.1.15,2013-06-02 01:48:00,
2013-06-01 21:49:00,69.7,59.9,30.12,SSW,213,3.0,8.0,71,0.00,,,0.00,Wunderground v.1.15,2013-06-02 01:49:00,
2013-06-01 21:51:00,69.7,59.9,30.12,SW,223,2.0,5.0,71,0.00,,,0.00,Wunderground v.1.15,2013-06-02 01:51:00,
2013-06-01 21:52:00,69.7,59.9,30.12,South,188,1.0,5.0,71,0.00,,,0.00,Wunderground v.1.15,2013-06-02 01:52:00,
2013-06-01 21:53:00,69.7,59.9,30.12,South,182,4.0,7.0,71,0.00,,,0.00,Wunderground v.1.15,2013-06-02 01:53:00,
2013-06-01 21:54:00,69.7,59.9,30.12,SSW,200,0.0,7.0,71,0.00,,,0.00,Wunderground v.1.15,2013-06-02 01:54:00,
2013-06-01 21:56:00,69.7,59.9,30.13,WSW,238,2.0,7.0,71,0.00,,,0.00,Wunderground v.1.15,2013-06-02 01:56:00,
2013-06-01 21:57:00,69.6,59.8,30.13,SSW,205,4.0,7.0,71,0.00,,,0.00,Wunderground v.1.15,2013-06-02 01:57:00,
2013-06-01 21:58:00,69.6,59.8,30.13,SSW,205,3.0,7.0,71,0.00,,,0.00,Wunderground v.1.15,2013-06-02 01:58:00,
2013-06-01 21:59:00,69.6,59.8,30.13,SSW,211,6.0,12.0,71,0.00,,,0.00,Wunderground v.1.15,2013-06-02 01:59:00,
2013-06-01 22:03:00,69.5,59.7,30.13,SSW,202,6.0,9.0,71,0.00,,,0.00,Wunderground v.1.15,2013-06-02 02:03:00,
2013-06-01 22:04:00,69.5,59.7,30.13,South,182,6.0,9.0,71,0.00,,,0.00,Wunderground v.1.15,2013-06-02 02:04:00,
2013-06-01 22:08:00,69.6,59.8,30.13,SSW,196,1.0,11.0,71,0.00,,,0.00,Wunderground v.1.15,2013-06-02 02:08:00,
2013-06-01 22:09:00,69.6,59.8,30.13,SSW,200,3.0,11.0,71,0.00,,,0.00,Wunderground v.1.15,2013-06-02 02:09:00,
2013-06-01 22:10:00,69.6,59.8,30.13,South,173,4.0,5.0,71,0.00,,,0.00,Wunderground v.1.15,2013-06-02 02:10:00,
2013-06-01 22:13:00,69.5,59.7,30.13,South,175,1.0,6.0,71,0.00,,,0.00,Wunderground v.1.15,2013-06-02 02:13:00,
2013-06-01 22:14:00,69.5,60.1,30.13,SSE,149,3.0,6.0,72,0.00,,,0.00,Wunderground v.1.15,2013-06-02 02:14:00,
2013-06-01 22:15:00,69.4,60.0,30.13,South,175,2.0,6.0,72,0.00,,,0.00,Wunderground v.1.15,2013-06-02 02:15:00,
2013-06-01 22:17:00,69.4,60.0,30.13,SSW,192,4.0,6.0,72,0.00,,,0.00,Wunderground v.1.15,2013-06-02 02:17:00,
2013-06-01 22:18:00,69.3,59.9,30.13,South,190,1.0,6.0,72,0.00,,,0.00,Wunderground v.1.15,2013-06-02 02:18:00,
2013-06-01 22:19:00,69.3,59.9,30.13,South,173,1.0,6.0,72,0.00,,,0.00,Wunderground v.1.15,2013-06-02 02:19:00,
2013-06-01 22:20:00,69.2,59.8,30.13,SW,216,0.0,3.0,72,0.00,,,0.00,Wunderground v.1.15,2013-06-02 02:20:00,
2013-06-01 22:22:00,69.2,59.8,30.13,SSW,192,2.0,5.0,72,0.00,,,0.00,Wunderground v.1.15,2013-06-02 02:22:00,
2013-06-01 22:23:00,69.2,59.8,30.13,South,187,1.0,5.0,72,0.00,,,0.00,Wunderground v.1.15,2013-06-02 02:23:00,
2013-06-01 22:24:00,69.2,59.8,30.13,South,183,3.0,5.0,72,0.00,,,0.00,Wunderground v.1.15,2013-06-02 02:24:00,
2013-06-01 22:25:00,69.1,59.7,30.13,SSE,157,3.0,6.0,72,0.00,,,0.00,Wunderground v.1.15,2013-06-02 02:25:00,
2013-06-01 22:27:00,69.1,60.1,30.14,SSW,192,5.0,7.0,73,0.00,,,0.00,Wunderground v.1.15,2013-06-02 02:27:00,
2013-06-01 22:28:00,69.1,60.1,30.13,South,174,3.0,7.0,73,0.00,,,0.00,Wunderground v.1.15,2013-06-02 02:28:00,
2013-06-01 22:29:00,69.0,60.0,30.13,South,173,4.0,7.0,73,0.00,,,0.00,Wunderground v.1.15,2013-06-02 02:29:00,
2013-06-01 22:30:00,69.0,60.0,30.13,South,177,2.0,3.0,73,0.00,,,0.00,Wunderground v.1.15,2013-06-02 02:30:00,
2013-06-01 22:31:00,69.0,60.0,30.14,SE,139,4.0,4.0,73,0.00,,,0.00,Wunderground v.1.15,2013-06-02 02:31:00,
2013-06-01 22:33:00,69.0,60.0,30.14,SSW,201,2.0,8.0,73,0.00,,,0.00,Wunderground v.1.15,2013-06-02 02:33:00,
2013-06-01 22:34:00,69.0,60.0,30.14,SSW,201,0.0,8.0,73,0.00,,,0.00,Wunderground v.1.15,2013-06-02 02:34:00,
2013-06-01 22:35:00,69.1,60.1,30.13,South,186,7.0,8.0,73,0.00,,,0.00,Wunderground v.1.15,2013-06-02 02:35:00,
2013-06-01 22:36:00,69.1,60.1,30.13,SW,225,3.0,8.0,73,0.00,,,0.00,Wunderground v.1.15,2013-06-02 02:36:00,
2013-06-01 22:38:00,69.3,59.9,30.14,SE,136,2.0,8.0,72,0.00,,,0.00,Wunderground v.1.15,2013-06-02 02:38:00,
2013-06-01 22:39:00,69.3,59.9,30.14,SSE,163,3.0,8.0,72,0.00,,,0.00,Wunderground v.1.15,2013-06-02 02:39:00,
2013-06-01 22:40:00,69.3,59.9,30.13,South,171,2.0,3.0,72,0.00,,,0.00,Wunderground v.1.15,2013-06-02 02:40:00,
2013-06-01 22:41:00,69.3,59.9,30.14,South,169,1.0,4.0,72,0.00,,,0.00,Wunderground v.1.15,2013-06-02 02:41:00,
2013-06-01 22:44:00,69.3,60.3,30.14,SE,133,2.0,8.0,73,0.00,,,0.00,Wunderground v.1.15,2013-06-02 02:44:00,
2013-06-01 22:45:00,69.2,60.2,30.14,SSE,164,4.0,8.0,73,0.00,,,0.00,Wunderground v.1.15,2013-06-02 02:45:00,
2013-06-01 22:46:00,69.2,60.2,30.14,South,180,3.0,8.0,73,0.00,,,0.00,Wunderground v.1.15,2013-06-02 02:46:00,
2013-06-01 22:49:00,69.1,60.1,30.14,South,175,4.0,8.0,73,0.00,,,0.00,Wunderground v.1.15,2013-06-02 02:49:00,
2013-06-01 22:50:00,69.1,60.1,30.14,SSE,158,3.0,4.0,73,0.00,,,0.00,Wunderground v.1.15,2013-06-02 02:50:00,
2013-06-01 22:51:00,69.1,60.1,30.13,SSW,192,2.0,6.0,73,0.00,,,0.00,Wunderground v.1.15,2013-06-02 02:51:00,
2013-06-01 22:52:00,69.1,60.1,30.13,SSW,193,6.0,6.0,73,0.00,,,0.00,Wunderground v.1.15,2013-06-02 02:52:00,
2013-06-01 22:54:00,69.1,60.1,30.14,South,178,7.0,9.0,73,0.00,,,0.00,Wunderground v.1.15,2013-06-02 02:54:00,
2013-06-01 22:55:00,69.1,60.1,30.14,SSE,165,3.0,9.0,73,0.00,,,0.00,Wunderground v.1.15,2013-06-02 02:55:00,
2013-06-01 22:56:00,69.1,60.1,30.13,South,178,4.0,9.0,73,0.00,,,0.00,Wunderground v.1.15,2013-06-02 02:56:00,
2013-06-01 22:57:00,69.1,60.1,30.14,South,184,6.0,9.0,73,0.00,,,0.00,Wunderground v.1.15,2013-06-02 02:57:00,
2013-06-01 22:59:00,69.1,60.1,30.13,SSW,202,4.0,9.0,73,0.00,,,0.00,Wunderground v.1.15,2013-06-02 02:59:00,
2013-06-01 23:00:00,69.0,60.0,30.13,SSW,196,2.0,4.0,73,0.00,,,0.00,Wunderground v.1.15,2013-06-02 03:00:00,
2013-06-01 23:01:00,69.0,60.0,30.14,South,173,2.0,4.0,73,0.00,,,0.00,Wunderground v.1.15,2013-06-02 03:01:00,
2013-06-01 23:02:00,69.0,60.0,30.13,South,170,3.0,4.0,73,0.00,,,0.00,Wunderground v.1.15,2013-06-02 03:02:00,
2013-06-01 23:05:00,68.9,60.3,30.14,SSE,161,2.0,6.0,74,0.00,,,0.00,Wunderground v.1.15,2013-06-02 03:05:00,
2013-06-01 23:07:00,68.9,60.3,30.13,South,169,0.0,10.0,74,0.00,,,0.00,Wunderground v.1.15,2013-06-02 03:07:00,
2013-06-01 23:08:00,68.9,60.3,30.14,SSE,165,3.0,10.0,74,0.00,,,0.00,Wunderground v.1.15,2013-06-02 03:08:00,
2013-06-01 23:10:00,68.9,60.3,30.14,South,183,7.0,7.0,74,0.00,,,0.00,Wunderground v.1.15,2013-06-02 03:10:00,
2013-06-01 23:11:00,68.8,60.2,30.14,South,190,5.0,8.0,74,0.00,,,0.00,Wunderground v.1.15,2013-06-02 03:11:00,
2013-06-01 23:12:00,68.9,60.3,30.13,SE,134,2.0,8.0,74,0.00,,,0.00,Wunderground v.1.15,2013-06-02 03:12:00,
2013-06-01 23:13:00,68.9,60.3,30.13,ESE,123,2.0,8.0,74,0.00,,,0.00,Wunderground v.1.15,2013-06-02 03:13:00,
2013-06-01 23:15:00,68.9,60.3,30.13,SSE,155,5.0,8.0,74,0.00,,,0.00,Wunderground v.1.15,2013-06-02 03:15:00,
2013-06-01 23:16:00,68.9,60.3,30.13,West,265,3.0,8.0,74,0.00,,,0.00,Wunderground v.1.15,2013-06-02 03:16:00,
2013-06-01 23:17:00,68.9,60.3,30.13,South,169,3.0,8.0,74,0.00,,,0.00,Wunderground v.1.15,2013-06-02 03:17:00,
2013-06-01 23:18:00,68.9,60.3,30.14,SSE,167,3.0,8.0,74,0.00,,,0.00,Wunderground v.1.15,2013-06-02 03:18:00,
2013-06-01 23:20:00,68.9,60.3,30.13,South,172,3.0,5.0,74,0.00,,,0.00,Wunderground v.1.15,2013-06-02 03:20:00,
2013-06-01 23:22:00,68.9,60.3,30.13,ESE,115,5.0,9.0,74,0.00,,,0.00,Wunderground v.1.15,2013-06-02 03:22:00,
2013-06-01 23:23:00,68.9,60.3,30.13,South,190,3.0,9.0,74,0.00,,,0.00,Wunderground v.1.15,2013-06-02 03:23:00,
2013-06-01 23:24:00,68.9,60.3,30.13,WSW,247,4.0,9.0,74,0.00,,,0.00,Wunderground v.1.15,2013-06-02 03:24:00,
2013-06-01 23:25:00,68.9,60.3,30.13,South,169,3.0,9.0,74,0.00,,,0.00,Wunderground v.1.15,2013-06-02 03:25:00,
2013-06-01 23:27:00,69.0,60.4,30.13,South,190,6.0,9.0,74,0.00,,,0.00,Wunderground v.1.15,2013-06-02 03:27:00,
2013-06-01 23:28:00,69.0,60.4,30.13,South,173,4.0,9.0,74,0.00,,,0.00,Wunderground v.1.15,2013-06-02 03:28:00,
2013-06-01 23:29:00,69.0,60.4,30.13,South,185,4.0,9.0,74,0.00,,,0.00,Wunderground v.1.15,2013-06-02 03:29:00,
2013-06-01 23:31:00,69.0,60.4,30.13,East,80,2.0,4.0,74,0.00,,,0.00,Wunderground v.1.15,2013-06-02 03:31:00,
2013-06-01 23:33:00,68.9,60.3,30.13,South,190,2.0,5.0,74,0.00,,,0.00,Wunderground v.1.15,2013-06-02 03:33:00,
2013-06-01 23:34:00,68.9,60.3,30.13,ESE,115,3.0,5.0,74,0.00,,,0.00,Wunderground v.1.15,2013-06-02 03:34:00,
2013-06-01 23:36:00,68.9,60.3,30.13,SSE,166,1.0,5.0,74,0.00,,,0.00,Wunderground v.1.15,2013-06-02 03:36:00,
2013-06-01 23:38:00,68.9,60.3,30.13,South,171,3.0,5.0,74,0.00,,,0.00,Wunderground v.1.15,2013-06-02 03:38:00,
2013-06-01 23:39:00,68.8,60.6,30.13,WSW,237,0.0,5.0,75,0.00,,,0.00,Wunderground v.1.15,2013-06-02 03:39:00,
2013-06-01 23:40:00,68.8,60.6,30.13,South,186,0.0,2.0,75,0.00,,,0.00,Wunderground v.1.15,2013-06-02 03:40:00,
2013-06-01 23:41:00,68.8,60.6,30.13,South,170,2.0,2.0,75,0.00,,,0.00,Wunderground v.1.15,2013-06-02 03:41:00,
2013-06-01 23:43:00,68.8,60.6,30.13,SW,232,2.0,4.0,75,0.00,,,0.00,Wunderground v.1.15,2013-06-02 03:43:00,
2013-06-01 23:44:00,68.8,60.6,30.13,SW,236,3.0,4.0,75,0.00,,,0.00,Wunderground v.1.15,2013-06-02 03:44:00,
2013-06-01 23:45:00,68.8,60.6,30.12,South,171,2.0,4.0,75,0.00,,,0.00,Wunderground v.1.15,2013-06-02 03:45:00,
2013-06-01 23:46:00,68.8,60.6,30.12,WSW,240,4.0,4.0,75,0.00,,,0.00,Wunderground v.1.15,2013-06-02 03:46:00,
2013-06-01 23:48:00,68.8,60.6,30.12,SW,234,2.0,10.0,75,0.00,,,0.00,Wunderground v.1.15,2013-06-02 03:48:00,
2013-06-01 23:49:00,68.8,60.6,30.12,WSW,247,3.0,10.0,75,0.00,,,0.00,Wunderground v.1.15,2013-06-02 03:49:00,
2013-06-01 23:50:00,68.9,60.6,30.12,South,185,4.0,4.0,75,0.00,,,0.00,Wunderground v.1.15,2013-06-02 03:50:00,
2013-06-01 23:51:00,68.9,60.6,30.12,South,184,1.0,6.0,75,0.00,,,0.00,Wunderground v.1.15,2013-06-02 03:51:00,
2013-06-01 23:54:00,68.9,60.6,30.12,SSW,198,6.0,10.0,75,0.00,,,0.00,Wunderground v.1.15,2013-06-02 03:54:00,
2013-06-01 23:55:00,68.9,60.6,30.12,SSW,205,1.0,10.0,75,0.00,,,0.00,Wunderground v.1.15,2013-06-02 03:55:00,
2013-06-01 23:56:00,68.9,60.6,30.12,SSW,201,7.0,10.0,75,0.00,,,0.00,Wunderground v.1.15,2013-06-02 03:56:00,
2013-06-01 23:57:00,68.9,60.6,30.12,SW,234,2.0,10.0,75,0.00,,,0.00,Wunderground v.1.15,2013-06-02 03:57:00,
2013-06-01 23:59:00,69.0,60.7,30.12,SSW,204,2.0,10.0,75,0.00,,,0.00,Wunderground v.1.15,2013-06-02 03:59:00,